GEFSMW_prec_meanprecacc_126.txt.gz
Total_Precipitation_Accumulation
0.19 0.22 0.23 0.26 0.25 0.25 0.29 0.36 0.41 0.51 0.62 0.85 1.18 1.62 1.83 1.96 1.98 2.00 1.90 1.69 1.48 1.49 1.64 1.60 1.58 1.57 1.53 1.49 1.43 1.53 1.48 1.22 1.12 1.26 1.21 1.08 0.91 0.84 0.80 0.78 0.85 0.94 0.89
0.14 0.12 0.13 0.15 0.15 0.15 0.17 0.27 0.33 0.42 0.57 0.85 1.17 1.52 1.88 1.97 1.99 2.01 1.97 1.83 1.71 1.71 1.75 1.93 2.03 1.99 2.07 2.04 1.85 1.95 1.95 1.63 1.39 1.54 1.77 1.50 1.30 0.92 0.80 0.83 0.84 0.93 1.02
0.13 0.11 0.09 0.09 0.11 0.12 0.12 0.18 0.24 0.39 0.67 1.01 1.33 1.53 1.82 1.95 2.02 1.98 1.99 2.01 1.97 1.87 1.89 1.99 2.15 2.16 2.22 2.28 2.34 2.28 2.33 2.11 1.76 1.66 1.87 1.66 1.52 1.32 0.91 0.84 0.95 1.03 1.10
0.15 0.13 0.10 0.07 0.08 0.09 0.11 0.14 0.20 0.40 0.74 1.08 1.34 1.59 1.94 2.05 2.03 2.07 2.06 2.08 2.10 2.06 2.13 2.14 2.24 2.27 2.27 2.34 2.44 2.40 2.47 2.51 2.15 1.89 1.68 1.48 1.43 1.48 1.24 1.00 0.97 1.10 1.13
0.15 0.13 0.11 0.09 0.10 0.10 0.13 0.20 0.34 0.52 0.78 0.99 1.24 1.60 1.86 1.99 2.14 2.09 2.07 2.08 2.15 2.17 2.20 2.26 2.41 2.39 2.35 2.32 2.52 2.55 2.62 2.54 2.46 2.30 2.12 1.96 1.67 1.30 1.34 1.33 1.17 1.10 1.02
0.17 0.17 0.16 0.16 0.16 0.18 0.24 0.33 0.49 0.64 0.85 1.02 1.22 1.41 1.67 1.82 1.97 2.07 2.02 2.03 2.09 2.20 2.09 2.02 2.14 2.20 2.23 2.22 2.38 2.53 2.65 2.62 2.64 2.54 2.24 2.14 1.99 1.60 1.52 1.39 1.28 1.27 1.10
0.26 0.30 0.31 0.34 0.41 0.44 0.48 0.56 0.65 0.76 0.87 0.97 1.07 1.13 1.31 1.48 1.54 1.72 1.81 1.94 1.96 2.02 2.05 1.95 1.94 1.96 1.92 1.95 2.06 2.11 2.18 2.32 2.45 2.35 2.14 2.08 1.91 1.85 1.83 1.71 1.48 1.29 1.08
0.43 0.53 0.61 0.69 0.76 0.75 0.74 0.81 0.86 0.84 0.83 0.88 0.94 0.97 1.04 1.13 1.22 1.27 1.32 1.51 1.68 1.72 1.80 1.80 1.74 1.78 1.83 1.84 1.90 1.90 1.90 1.92 1.98 1.99 2.04 2.08 1.95 1.86 1.76 1.73 1.84 1.61 1.37
0.71 0.81 0.91 0.92 0.93 0.90 0.86 0.86 0.89 0.86 0.84 0.84 0.84 0.80 0.80 0.87 0.98 1.01 1.09 1.16 1.26 1.28 1.34 1.44 1.51 1.60 1.65 1.71 1.84 1.89 1.88 1.83 1.80 1.89 1.95 1.89 1.85 1.82 1.70 1.64 1.70 1.76 1.62
1.06 1.19 1.27 1.17 1.10 1.09 1.13 1.02 0.93 0.86 0.82 0.82 0.82 0.76 0.73 0.78 0.82 0.83 0.90 0.89 0.91 0.94 1.00 1.11 1.28 1.50 1.62 1.65 1.72 1.76 1.83 1.85 1.79 1.88 1.98 1.97 1.97 2.00 1.90 1.76 1.70 1.64 1.63
1.43 1.52 1.53 1.43 1.23 1.10 1.10 1.04 0.93 0.82 0.72 0.71 0.76 0.76 0.71 0.73 0.77 0.77 0.73 0.67 0.70 0.78 0.89 0.95 1.09 1.24 1.42 1.60 1.74 1.74 1.73 1.75 1.74 1.69 1.77 1.87 1.97 2.08 2.09 2.05 1.89 1.75 1.71
1.30 1.34 1.30 1.29 1.18 1.08 1.00 0.95 0.85 0.71 0.65 0.70 0.73 0.75 0.67 0.62 0.65 0.66 0.68 0.59 0.56 0.62 0.71 0.84 1.05 1.16 1.24 1.29 1.37 1.44 1.47 1.48 1.51 1.50 1.46 1.56 1.67 1.81 1.96 2.02 1.96 1.94 1.84
0.98 1.07 1.13 1.04 1.00 0.92 0.87 0.95 0.95 0.83 0.81 0.85 0.90 0.83 0.70 0.66 0.65 0.61 0.64 0.59 0.56 0.61 0.66 0.80 0.95 1.01 1.06 1.09 1.11 1.21 1.28 1.29 1.26 1.30 1.27 1.28 1.38 1.52 1.64 1.73 1.81 1.92 1.96
0.78 0.84 0.92 0.88 0.89 0.83 0.80 0.89 0.94 0.95 1.02 1.10 1.06 0.90 0.77 0.70 0.64 0.60 0.56 0.57 0.59 0.62 0.69 0.84 0.94 0.95 0.91 1.00 1.03 1.08 1.10 1.07 1.03 1.06 1.06 1.10 1.13 1.20 1.31 1.46 1.67 1.85 1.95
0.56 0.55 0.55 0.56 0.63 0.63 0.60 0.65 0.72 0.83 0.98 1.05 0.94 0.80 0.68 0.58 0.53 0.56 0.53 0.54 0.61 0.64 0.71 0.76 0.87 0.92 0.90 0.93 0.99 0.98 0.90 0.89 0.89 0.85 0.77 0.79 0.84 0.85 0.93 0.99 1.26 1.51 1.70
0.33 0.31 0.28 0.28 0.33 0.33 0.35 0.39 0.47 0.62 0.85 0.93 0.81 0.64 0.56 0.53 0.49 0.48 0.45 0.44 0.47 0.53 0.58 0.64 0.80 0.91 0.82 0.93 0.92 0.84 0.77 0.73 0.77 0.74 0.68 0.66 0.70 0.62 0.59 0.62 0.84 1.12 1.30
0.23 0.24 0.22 0.20 0.20 0.20 0.23 0.30 0.36 0.50 0.60 0.62 0.58 0.47 0.41 0.40 0.39 0.38 0.38 0.41 0.43 0.47 0.52 0.56 0.73 0.82 0.90 0.85 0.69 0.73 0.73 0.73 0.75 0.77 0.79 0.72 0.68 0.75 0.66 0.60 0.67 0.76 0.87
0.21 0.21 0.21 0.20 0.21 0.22 0.23 0.32 0.37 0.39 0.45 0.52 0.50 0.44 0.39 0.36 0.36 0.34 0.36 0.44 0.45 0.44 0.49 0.55 0.59 0.67 0.80 0.74 0.59 0.63 0.62 0.72 0.80 0.83 0.92 0.93 0.86 0.83 0.89 0.83 0.84 0.82 0.76
0.13 0.13 0.13 0.12 0.12 0.12 0.11 0.13 0.17 0.22 0.27 0.30 0.35 0.34 0.29 0.30 0.34 0.34 0.39 0.43 0.44 0.48 0.50 0.55 0.58 0.64 0.68 0.64 0.57 0.60 0.66 0.79 0.82 0.78 0.89 0.92 0.85 0.90 0.96 1.06 1.10 1.02 0.89
0.03 0.03 0.03 0.03 0.03 0.02 0.03 0.04 0.05 0.06 0.09 0.10 0.14 0.18 0.19 0.23 0.29 0.38 0.44 0.42 0.41 0.46 0.48 0.47 0.47 0.52 0.54 0.59 0.50 0.60 0.72 0.78 0.79 0.80 0.85 0.99 0.90 0.87 0.86 0.93 1.05 1.03 0.92
0.00 0.00 0.00 0.01 0.01 0.01 0.01 0.02 0.02 0.02 0.02 0.02 0.04 0.07 0.11 0.17 0.25 0.33 0.32 0.33 0.36 0.39 0.41 0.44 0.43 0.44 0.52 0.62 0.63 0.68 0.71 0.76 0.83 0.91 0.95 0.93 0.99 0.83 0.80 0.80 0.80 0.87 0.86
0.00 0.00 0.00 0.00 0.00 0.00 0.00 0.00 0.00 0.00 0.00 0.00 0.01 0.02 0.04 0.07 0.12 0.20 0.23 0.26 0.30 0.32 0.32 0.32 0.33 0.37 0.48 0.56 0.58 0.60 0.64 0.73 0.75 0.80 0.80 0.76 0.83 0.67 0.60 0.56 0.62 0.68 0.71
0.00 0.00 0.00 0.00 0.00 0.00 0.00 0.00 0.00 0.00 0.00 0.00 0.00 0.00 0.01 0.02 0.06 0.12 0.17 0.21 0.27 0.29 0.28 0.26 0.28 0.32 0.36 0.44 0.47 0.47 0.46 0.49 0.53 0.52 0.60 0.60 0.58 0.53 0.46 0.50 0.54 0.56 0.58
0.00 0.00 0.00 0.00 0.00 0.00 0.00 0.00 0.00 0.00 0.00 0.00 0.00 0.00 0.01 0.01 0.03 0.06 0.13 0.21 0.24 0.23 0.24 0.26 0.28 0.31 0.34 0.34 0.35 0.39 0.39 0.38 0.43 0.42 0.43 0.42 0.41 0.43 0.44 0.46 0.50 0.56 0.60
0.00 0.00 0.00 0.00 0.00 0.00 0.00 0.00 0.00 0.00 0.00 0.00 0.00 0.00 0.00 0.01 0.02 0.02 0.06 0.13 0.15 0.15 0.18 0.23 0.27 0.32 0.34 0.30 0.27 0.28 0.34 0.40 0.45 0.50 0.44 0.40 0.40 0.43 0.49 0.51 0.48 0.51 0.56
0.00 0.00 0.00 0.00 0.00 0.00 0.00 0.00 0.00 0.00 0.00 0.00 0.00 0.00 0.01 0.02 0.02 0.02 0.03 0.05 0.06 0.08 0.09 0.10 0.14 0.13 0.13 0.13 0.13 0.16 0.21 0.28 0.35 0.48 0.54 0.56 0.60 0.63 0.61 0.58 0.49 0.44 0.45

GEFSMW_prec_meanprecacc_132.txt.gz
Total_Precipitation_Accumulation
0.19 0.23 0.25 0.27 0.26 0.25 0.29 0.36 0.41 0.51 0.62 0.85 1.18 1.62 1.83 1.96 1.98 2.00 1.90 1.69 1.48 1.49 1.64 1.60 1.59 1.57 1.54 1.50 1.44 1.55 1.49 1.23 1.13 1.27 1.23 1.10 0.94 0.88 0.85 0.85 0.92 1.01 0.98
0.14 0.13 0.15 0.16 0.15 0.15 0.18 0.27 0.33 0.42 0.57 0.85 1.17 1.52 1.88 1.97 1.99 2.01 1.97 1.83 1.71 1.72 1.75 1.94 2.03 1.99 2.08 2.06 1.87 1.98 1.97 1.64 1.39 1.56 1.80 1.53 1.34 0.96 0.85 0.89 0.90 0.99 1.08
0.13 0.11 0.10 0.10 0.11 0.12 0.13 0.18 0.24 0.39 0.67 1.01 1.33 1.53 1.82 1.95 2.02 1.98 1.99 2.01 1.97 1.87 1.89 2.00 2.15 2.16 2.23 2.30 2.37 2.30 2.34 2.13 1.77 1.67 1.90 1.71 1.57 1.36 0.96 0.91 1.01 1.09 1.16
0.16 0.13 0.10 0.08 0.08 0.09 0.11 0.14 0.20 0.40 0.74 1.08 1.34 1.59 1.94 2.05 2.03 2.07 2.06 2.08 2.10 2.06 2.13 2.14 2.25 2.27 2.27 2.35 2.46 2.41 2.49 2.53 2.17 1.92 1.71 1.51 1.46 1.53 1.30 1.07 1.02 1.17 1.23
0.15 0.13 0.12 0.09 0.10 0.10 0.13 0.20 0.34 0.52 0.78 0.99 1.24 1.60 1.86 1.99 2.14 2.09 2.07 2.08 2.15 2.17 2.20 2.26 2.41 2.39 2.35 2.33 2.53 2.57 2.64 2.56 2.48 2.32 2.14 1.98 1.70 1.35 1.40 1.38 1.23 1.17 1.11
0.17 0.17 0.16 0.16 0.16 0.18 0.24 0.33 0.49 0.64 0.85 1.02 1.22 1.41 1.67 1.82 1.97 2.07 2.02 2.03 2.09 2.20 2.09 2.02 2.14 2.20 2.23 2.22 2.39 2.55 2.68 2.65 2.67 2.56 2.26 2.17 2.02 1.64 1.57 1.44 1.32 1.33 1.16
0.26 0.30 0.31 0.34 0.41 0.45 0.48 0.56 0.65 0.76 0.87 0.97 1.07 1.13 1.31 1.48 1.54 1.72 1.81 1.94 1.96 2.02 2.05 1.95 1.94 1.97 1.92 1.95 2.07 2.12 2.20 2.33 2.47 2.38 2.16 2.10 1.93 1.88 1.87 1.75 1.51 1.33 1.12
0.43 0.53 0.61 0.69 0.76 0.76 0.74 0.81 0.86 0.84 0.83 0.88 0.94 0.97 1.04 1.13 1.22 1.27 1.32 1.51 1.68 1.72 1.80 1.80 1.74 1.78 1.83 1.84 1.91 1.90 1.91 1.93 2.00 2.00 2.06 2.10 1.96 1.88 1.79 1.77 1.89 1.65 1.41
0.71 0.81 0.91 0.92 0.93 0.91 0.86 0.87 0.89 0.86 0.84 0.84 0.84 0.80 0.80 0.87 0.98 1.01 1.09 1.16 1.26 1.28 1.34 1.44 1.51 1.60 1.65 1.71 1.84 1.90 1.89 1.84 1.81 1.91 1.96 1.90 1.87 1.84 1.73 1.68 1.76 1.81 1.66
1.06 1.19 1.27 1.17 1.10 1.09 1.13 1.02 0.93 0.86 0.82 0.82 0.82 0.76 0.73 0.78 0.82 0.83 0.90 0.89 0.91 0.94 1.00 1.11 1.28 1.50 1.62 1.66 1.72 1.76 1.85 1.88 1.82 1.89 2.00 1.99 1.98 2.01 1.93 1.79 1.73 1.67 1.67
1.43 1.52 1.53 1.43 1.23 1.10 1.10 1.04 0.93 0.82 0.72 0.71 0.76 0.76 0.71 0.73 0.77 0.77 0.73 0.67 0.70 0.78 0.89 0.95 1.09 1.24 1.42 1.60 1.75 1.76 1.74 1.77 1.76 1.71 1.78 1.89 1.98 2.09 2.10 2.07 1.92 1.78 1.74
1.30 1.34 1.30 1.29 1.18 1.08 1.00 0.96 0.85 0.71 0.65 0.70 0.73 0.75 0.67 0.62 0.65 0.66 0.68 0.59 0.56 0.62 0.71 0.84 1.05 1.16 1.24 1.29 1.37 1.45 1.48 1.49 1.54 1.52 1.48 1.57 1.69 1.82 1.97 2.04 1.98 1.96 1.86
0.98 1.07 1.13 1.04 1.00 0.92 0.87 0.95 0.95 0.83 0.81 0.85 0.90 0.83 0.70 0.66 0.65 0.61 0.64 0.59 0.56 0.61 0.66 0.80 0.95 1.01 1.06 1.09 1.11 1.21 1.29 1.29 1.27 1.31 1.28 1.30 1.40 1.53 1.65 1.74 1.82 1.94 1.98
0.78 0.84 0.92 0.88 0.89 0.83 0.80 0.89 0.94 0.95 1.02 1.10 1.06 0.90 0.77 0.70 0.64 0.60 0.56 0.57 0.59 0.62 0.69 0.84 0.94 0.95 0.91 1.00 1.03 1.08 1.11 1.07 1.03 1.06 1.07 1.11 1.14 1.21 1.33 1.47 1.68 1.87 1.97
0.56 0.55 0.55 0.56 0.63 0.63 0.61 0.65 0.72 0.83 0.98 1.05 0.94 0.80 0.68 0.58 0.53 0.56 0.53 0.54 0.61 0.64 0.71 0.76 0.87 0.92 0.90 0.93 0.99 0.98 0.92 0.90 0.90 0.86 0.77 0.79 0.85 0.86 0.94 0.99 1.27 1.52 1.73
0.33 0.31 0.28 0.28 0.33 0.33 0.35 0.39 0.47 0.62 0.85 0.93 0.81 0.64 0.56 0.53 0.49 0.48 0.45 0.44 0.47 0.53 0.58 0.64 0.80 0.91 0.82 0.93 0.92 0.85 0.78 0.74 0.78 0.75 0.69 0.67 0.71 0.62 0.59 0.63 0.84 1.13 1.33
0.23 0.24 0.22 0.20 0.20 0.20 0.23 0.31 0.37 0.50 0.60 0.62 0.58 0.47 0.41 0.40 0.39 0.38 0.38 0.41 0.43 0.47 0.52 0.56 0.73 0.82 0.90 0.85 0.70 0.74 0.73 0.74 0.75 0.78 0.80 0.73 0.68 0.76 0.67 0.61 0.68 0.77 0.88
0.21 0.21 0.21 0.20 0.21 0.22 0.23 0.33 0.37 0.39 0.45 0.52 0.50 0.44 0.39 0.36 0.36 0.34 0.36 0.44 0.45 0.44 0.49 0.55 0.59 0.67 0.80 0.74 0.59 0.63 0.63 0.73 0.81 0.84 0.93 0.93 0.87 0.84 0.91 0.85 0.86 0.84 0.77
0.13 0.13 0.13 0.12 0.12 0.12 0.11 0.13 0.17 0.22 0.27 0.30 0.35 0.34 0.29 0.30 0.34 0.34 0.39 0.43 0.44 0.48 0.50 0.55 0.58 0.64 0.68 0.64 0.57 0.60 0.66 0.79 0.82 0.79 0.90 0.92 0.85 0.90 0.96 1.08 1.13 1.05 0.91
0.03 0.03 0.03 0.03 0.03 0.02 0.03 0.04 0.05 0.06 0.09 0.10 0.14 0.18 0.19 0.23 0.29 0.38 0.44 0.42 0.41 0.46 0.48 0.47 0.47 0.52 0.54 0.59 0.50 0.60 0.72 0.78 0.79 0.80 0.86 0.99 0.90 0.87 0.86 0.95 1.07 1.06 0.94
0.00 0.00 0.00 0.01 0.01 0.01 0.01 0.02 0.02 0.02 0.02 0.02 0.04 0.07 0.11 0.17 0.25 0.33 0.32 0.33 0.36 0.39 0.41 0.44 0.43 0.45 0.52 0.63 0.64 0.69 0.71 0.76 0.83 0.91 0.96 0.93 0.99 0.83 0.80 0.81 0.82 0.89 0.88
0.00 0.00 0.00 0.00 0.00 0.00 0.00 0.00 0.00 0.00 0.00 0.01 0.01 0.02 0.04 0.07 0.12 0.20 0.23 0.26 0.30 0.32 0.32 0.32 0.33 0.37 0.48 0.56 0.58 0.60 0.65 0.73 0.75 0.80 0.80 0.76 0.83 0.68 0.60 0.57 0.63 0.69 0.73
0.00 0.00 0.00 0.00 0.00 0.00 0.00 0.00 0.00 0.00 0.00 0.00 0.00 0.00 0.01 0.02 0.06 0.12 0.17 0.21 0.27 0.29 0.28 0.26 0.28 0.32 0.37 0.44 0.47 0.47 0.47 0.49 0.54 0.52 0.60 0.60 0.59 0.54 0.47 0.51 0.55 0.57 0.60
0.00 0.00 0.00 0.00 0.00 0.00 0.00 0.00 0.00 0.00 0.00 0.00 0.00 0.00 0.01 0.01 0.03 0.06 0.13 0.21 0.24 0.23 0.24 0.26 0.28 0.31 0.34 0.34 0.35 0.39 0.40 0.39 0.43 0.42 0.44 0.43 0.42 0.44 0.44 0.46 0.51 0.57 0.61
0.00 0.00 0.00 0.00 0.00 0.00 0.00 0.00 0.00 0.00 0.00 0.00 0.00 0.00 0.01 0.01 0.02 0.02 0.06 0.13 0.15 0.15 0.18 0.23 0.28 0.32 0.34 0.31 0.27 0.28 0.35 0.41 0.46 0.50 0.44 0.40 0.40 0.43 0.50 0.51 0.49 0.52 0.56
0.00 0.00 0.00 0.00 0.00 0.00 0.00 0.00 0.00 0.00 0.00 0.00 0.00 0.00 0.01 0.02 0.02 0.02 0.03 0.05 0.06 0.08 0.09 0.10 0.14 0.14 0.13 0.14 0.14 0.17 0.22 0.29 0.35 0.49 0.55 0.56 0.61 0.63 0.61 0.59 0.50 0.45 0.45

GEFSMW_prec_meanprecacc_138.txt.gz
Total_Precipitation_Accumulation
0.19 0.24 0.27 0.28 0.26 0.26 0.29 0.36 0.41 0.51 0.63 0.86 1.19 1.62 1.84 1.97 1.99 2.01 1.90 1.70 1.48 1.49 1.65 1.61 1.59 1.60 1.57 1.53 1.47 1.59 1.52 1.25 1.16 1.30 1.26 1.13 0.96 0.90 0.88 0.87 0.96 1.06 1.06
0.14 0.13 0.16 0.17 0.16 0.15 0.18 0.27 0.34 0.42 0.57 0.85 1.17 1.52 1.88 1.97 2.00 2.01 1.97 1.83 1.71 1.72 1.75 1.95 2.05 2.02 2.10 2.08 1.89 2.02 2.02 1.67 1.41 1.59 1.84 1.58 1.38 0.99 0.87 0.91 0.93 1.04 1.15
0.14 0.12 0.10 0.11 0.11 0.12 0.13 0.19 0.24 0.39 0.67 1.01 1.33 1.53 1.82 1.95 2.02 1.98 1.99 2.01 1.97 1.87 1.89 2.00 2.17 2.18 2.25 2.32 2.39 2.33 2.40 2.17 1.80 1.70 1.94 1.76 1.63 1.41 0.99 0.93 1.02 1.13 1.22
0.17 0.13 0.11 0.08 0.09 0.10 0.11 0.14 0.20 0.40 0.74 1.08 1.34 1.59 1.94 2.05 2.03 2.07 2.06 2.08 2.10 2.06 2.13 2.15 2.25 2.27 2.28 2.37 2.48 2.43 2.54 2.58 2.20 1.95 1.73 1.55 1.52 1.58 1.34 1.10 1.06 1.22 1.28
0.17 0.14 0.12 0.10 0.11 0.11 0.14 0.20 0.34 0.53 0.78 0.99 1.24 1.60 1.86 1.99 2.14 2.09 2.07 2.08 2.15 2.17 2.20 2.27 2.42 2.40 2.37 2.34 2.56 2.61 2.69 2.61 2.52 2.36 2.18 2.01 1.75 1.39 1.45 1.44 1.28 1.22 1.16
0.18 0.18 0.16 0.16 0.16 0.19 0.25 0.33 0.49 0.64 0.85 1.02 1.22 1.41 1.67 1.82 1.97 2.07 2.02 2.03 2.10 2.20 2.10 2.02 2.16 2.22 2.25 2.24 2.41 2.58 2.71 2.69 2.71 2.61 2.30 2.21 2.07 1.69 1.62 1.49 1.38 1.40 1.23
0.27 0.31 0.31 0.35 0.41 0.45 0.48 0.56 0.66 0.76 0.87 0.97 1.07 1.13 1.31 1.48 1.54 1.72 1.81 1.94 1.96 2.02 2.05 1.95 1.95 1.98 1.93 1.97 2.08 2.14 2.22 2.36 2.51 2.41 2.19 2.13 1.97 1.92 1.91 1.80 1.56 1.39 1.18
0.43 0.53 0.61 0.70 0.76 0.76 0.74 0.81 0.86 0.85 0.83 0.88 0.94 0.97 1.04 1.13 1.22 1.27 1.32 1.51 1.68 1.72 1.80 1.80 1.75 1.79 1.83 1.84 1.91 1.92 1.92 1.95 2.02 2.01 2.08 2.12 1.98 1.90 1.82 1.81 1.94 1.72 1.47
0.71 0.82 0.91 0.92 0.93 0.91 0.86 0.87 0.89 0.86 0.84 0.84 0.84 0.80 0.80 0.87 0.98 1.01 1.09 1.16 1.26 1.28 1.34 1.44 1.51 1.61 1.66 1.72 1.85 1.91 1.90 1.86 1.83 1.93 1.98 1.92 1.89 1.87 1.76 1.72 1.81 1.87 1.72
1.07 1.20 1.27 1.17 1.10 1.09 1.13 1.02 0.93 0.86 0.82 0.82 0.82 0.76 0.73 0.78 0.82 0.83 0.90 0.89 0.91 0.94 1.00 1.11 1.28 1.50 1.62 1.66 1.73 1.78 1.86 1.89 1.84 1.92 2.01 2.01 2.01 2.03 1.95 1.82 1.77 1.71 1.73
1.44 1.53 1.54 1.43 1.23 1.10 1.10 1.04 0.93 0.82 0.72 0.71 0.76 0.76 0.71 0.73 0.78 0.77 0.73 0.67 0.70 0.78 0.89 0.95 1.09 1.24 1.43 1.61 1.75 1.77 1.76 1.80 1.78 1.72 1.80 1.90 2.00 2.12 2.13 2.10 1.95 1.81 1.78
1.31 1.35 1.30 1.29 1.18 1.09 1.00 0.96 0.85 0.71 0.65 0.70 0.73 0.75 0.67 0.62 0.65 0.66 0.68 0.59 0.56 0.62 0.71 0.84 1.05 1.16 1.25 1.30 1.38 1.46 1.49 1.51 1.56 1.55 1.52 1.60 1.72 1.86 2.00 2.06 2.00 1.99 1.90
0.98 1.08 1.13 1.04 1.00 0.92 0.87 0.95 0.95 0.83 0.81 0.85 0.90 0.83 0.70 0.66 0.65 0.61 0.64 0.59 0.56 0.61 0.66 0.80 0.95 1.01 1.06 1.10 1.12 1.22 1.30 1.31 1.29 1.34 1.30 1.32 1.43 1.56 1.69 1.77 1.84 1.96 1.99
0.78 0.84 0.92 0.88 0.89 0.83 0.80 0.89 0.94 0.95 1.02 1.10 1.06 0.90 0.77 0.70 0.64 0.60 0.56 0.57 0.59 0.62 0.69 0.84 0.94 0.95 0.91 1.00 1.03 1.08 1.12 1.09 1.04 1.07 1.08 1.13 1.16 1.24 1.36 1.50 1.70 1.90 2.00
0.56 0.55 0.55 0.56 0.63 0.63 0.61 0.65 0.72 0.83 0.98 1.05 0.94 0.80 0.68 0.58 0.53 0.56 0.53 0.54 0.61 0.64 0.71 0.76 0.87 0.92 0.90 0.93 0.99 0.98 0.93 0.92 0.91 0.87 0.78 0.80 0.86 0.87 0.95 1.01 1.29 1.54 1.75
0.33 0.31 0.28 0.28 0.33 0.33 0.35 0.39 0.47 0.62 0.85 0.93 0.81 0.64 0.56 0.53 0.49 0.48 0.45 0.44 0.47 0.53 0.58 0.64 0.80 0.91 0.82 0.93 0.92 0.85 0.78 0.75 0.79 0.76 0.69 0.67 0.71 0.62 0.59 0.63 0.85 1.14 1.34
0.23 0.24 0.22 0.20 0.20 0.20 0.23 0.31 0.37 0.50 0.60 0.62 0.58 0.47 0.41 0.40 0.39 0.38 0.38 0.41 0.43 0.47 0.52 0.56 0.73 0.83 0.91 0.85 0.70 0.74 0.74 0.74 0.76 0.79 0.80 0.73 0.69 0.76 0.67 0.61 0.68 0.77 0.88
0.21 0.21 0.21 0.20 0.21 0.22 0.23 0.33 0.37 0.39 0.45 0.52 0.51 0.44 0.39 0.36 0.36 0.34 0.36 0.44 0.45 0.44 0.49 0.55 0.59 0.67 0.80 0.74 0.59 0.63 0.63 0.74 0.81 0.84 0.93 0.94 0.87 0.84 0.91 0.87 0.88 0.85 0.77
0.13 0.13 0.13 0.12 0.12 0.12 0.11 0.13 0.17 0.22 0.27 0.30 0.35 0.34 0.29 0.31 0.34 0.34 0.39 0.43 0.44 0.48 0.50 0.55 0.58 0.64 0.68 0.64 0.57 0.60 0.67 0.79 0.82 0.79 0.90 0.93 0.87 0.91 0.97 1.09 1.15 1.08 0.94
0.03 0.03 0.03 0.03 0.03 0.02 0.03 0.04 0.05 0.06 0.09 0.10 0.14 0.19 0.19 0.23 0.29 0.38 0.44 0.42 0.41 0.47 0.48 0.47 0.47 0.52 0.54 0.59 0.50 0.61 0.72 0.78 0.80 0.81 0.86 1.00 0.91 0.88 0.87 0.96 1.10 1.09 0.97
0.00 0.00 0.00 0.01 0.01 0.01 0.01 0.02 0.02 0.02 0.02 0.02 0.04 0.07 0.11 0.17 0.26 0.33 0.32 0.33 0.36 0.39 0.41 0.44 0.44 0.45 0.52 0.63 0.64 0.69 0.72 0.76 0.83 0.92 0.97 0.94 1.01 0.84 0.81 0.82 0.84 0.92 0.91
0.00 0.00 0.00 0.00 0.00 0.00 0.00 0.00 0.00 0.00 0.00 0.01 0.01 0.02 0.04 0.07 0.12 0.20 0.23 0.26 0.30 0.32 0.32 0.33 0.34 0.38 0.48 0.56 0.58 0.60 0.66 0.74 0.76 0.81 0.81 0.77 0.85 0.70 0.62 0.58 0.64 0.70 0.74
0.00 0.00 0.00 0.00 0.00 0.00 0.00 0.00 0.00 0.00 0.00 0.00 0.00 0.00 0.01 0.02 0.06 0.12 0.17 0.21 0.27 0.30 0.28 0.26 0.28 0.32 0.37 0.44 0.47 0.47 0.48 0.51 0.55 0.53 0.61 0.62 0.60 0.55 0.48 0.52 0.57 0.58 0.61
0.00 0.00 0.00 0.00 0.00 0.00 0.00 0.00 0.00 0.00 0.00 0.00 0.00 0.00 0.01 0.01 0.03 0.06 0.13 0.21 0.24 0.23 0.24 0.26 0.28 0.32 0.35 0.34 0.36 0.40 0.41 0.40 0.45 0.43 0.45 0.45 0.45 0.46 0.46 0.48 0.53 0.58 0.63
0.00 0.00 0.00 0.00 0.00 0.00 0.00 0.00 0.00 0.00 0.00 0.00 0.00 0.00 0.01 0.02 0.02 0.02 0.06 0.13 0.15 0.15 0.18 0.23 0.28 0.33 0.35 0.31 0.28 0.29 0.36 0.42 0.47 0.52 0.46 0.42 0.43 0.46 0.52 0.53 0.51 0.54 0.59
0.00 0.00 0.00 0.00 0.00 0.00 0.00 0.00 0.00 0.00 0.00 0.00 0.00 0.01 0.01 0.02 0.02 0.02 0.04 0.06 0.06 0.08 0.09 0.10 0.14 0.14 0.14 0.14 0.15 0.17 0.23 0.30 0.37 0.51 0.58 0.59 0.63 0.66 0.64 0.62 0.53 0.48 0.48

GEFSMW_prec_meanprecacc_144.txt.gz
Total_Precipitation_Accumulation
0.27 0.29 0.30 0.30 0.28 0.27 0.31 0.37 0.42 0.52 0.63 0.86 1.19 1.62 1.84 1.97 1.99 2.01 1.90 1.70 1.48 1.49 1.65 1.61 1.60 1.60 1.57 1.53 1.48 1.60 1.53 1.26 1.17 1.32 1.27 1.14 0.98 0.93 0.92 0.93 1.02 1.12 1.10
0.21 0.18 0.18 0.19 0.17 0.16 0.18 0.28 0.34 0.43 0.57 0.85 1.17 1.52 1.88 1.97 2.00 2.01 1.97 1.84 1.71 1.72 1.76 1.95 2.05 2.02 2.11 2.08 1.90 2.03 2.02 1.67 1.42 1.59 1.85 1.59 1.39 1.01 0.91 0.94 0.98 1.09 1.21
0.17 0.17 0.14 0.13 0.13 0.13 0.13 0.19 0.25 0.39 0.67 1.01 1.33 1.53 1.82 1.95 2.02 1.98 1.99 2.01 1.97 1.87 1.89 2.00 2.17 2.19 2.25 2.32 2.39 2.33 2.40 2.18 1.80 1.70 1.94 1.77 1.64 1.44 1.02 0.95 1.06 1.18 1.28
0.19 0.18 0.17 0.12 0.10 0.10 0.12 0.15 0.21 0.41 0.74 1.09 1.35 1.59 1.94 2.05 2.03 2.07 2.06 2.08 2.10 2.06 2.13 2.15 2.25 2.27 2.29 2.38 2.48 2.44 2.54 2.59 2.21 1.95 1.73 1.55 1.52 1.60 1.36 1.13 1.10 1.27 1.33
0.19 0.17 0.15 0.13 0.12 0.12 0.14 0.20 0.34 0.53 0.79 0.99 1.24 1.60 1.86 1.99 2.14 2.09 2.07 2.08 2.15 2.17 2.20 2.27 2.42 2.40 2.37 2.35 2.56 2.62 2.69 2.61 2.52 2.36 2.18 2.02 1.76 1.40 1.46 1.46 1.31 1.25 1.19
0.20 0.19 0.18 0.17 0.17 0.20 0.25 0.34 0.50 0.65 0.85 1.02 1.22 1.41 1.68 1.83 1.97 2.08 2.02 2.03 2.10 2.20 2.10 2.02 2.16 2.22 2.25 2.24 2.41 2.58 2.71 2.69 2.71 2.61 2.31 2.22 2.08 1.70 1.63 1.50 1.40 1.42 1.25
0.27 0.31 0.32 0.35 0.41 0.45 0.48 0.57 0.66 0.77 0.88 0.97 1.07 1.14 1.31 1.48 1.54 1.72 1.81 1.94 1.96 2.02 2.05 1.95 1.95 1.98 1.93 1.97 2.08 2.14 2.22 2.36 2.51 2.41 2.19 2.14 1.97 1.92 1.91 1.80 1.58 1.41 1.21
0.45 0.54 0.62 0.70 0.76 0.76 0.74 0.81 0.87 0.85 0.83 0.88 0.94 0.97 1.04 1.13 1.22 1.27 1.32 1.51 1.68 1.72 1.80 1.80 1.75 1.79 1.83 1.84 1.91 1.92 1.92 1.95 2.02 2.02 2.09 2.13 1.99 1.91 1.83 1.82 1.96 1.73 1.49
0.74 0.84 0.92 0.93 0.93 0.91 0.86 0.87 0.89 0.87 0.84 0.85 0.84 0.80 0.80 0.87 0.98 1.01 1.09 1.16 1.26 1.28 1.34 1.44 1.51 1.61 1.66 1.72 1.85 1.91 1.90 1.86 1.83 1.93 1.98 1.92 1.90 1.88 1.77 1.73 1.81 1.88 1.74
1.09 1.22 1.29 1.19 1.10 1.10 1.14 1.02 0.93 0.86 0.83 0.83 0.82 0.76 0.73 0.78 0.82 0.83 0.90 0.89 0.91 0.94 1.00 1.11 1.28 1.50 1.62 1.66 1.73 1.78 1.86 1.89 1.85 1.92 2.01 2.01 2.02 2.04 1.96 1.82 1.78 1.72 1.74
1.47 1.56 1.57 1.45 1.24 1.11 1.10 1.04 0.93 0.82 0.72 0.71 0.76 0.76 0.71 0.73 0.78 0.77 0.73 0.67 0.70 0.78 0.89 0.95 1.09 1.24 1.43 1.61 1.76 1.77 1.76 1.80 1.78 1.72 1.80 1.90 2.01 2.12 2.14 2.10 1.97 1.83 1.79
1.34 1.37 1.32 1.30 1.18 1.09 1.00 0.96 0.85 0.71 0.65 0.70 0.73 0.75 0.67 0.62 0.65 0.66 0.68 0.59 0.56 0.62 0.71 0.84 1.05 1.16 1.25 1.30 1.38 1.46 1.49 1.51 1.56 1.55 1.52 1.60 1.72 1.86 2.00 2.07 2.01 2.01 1.91
1.00 1.09 1.14 1.05 1.00 0.93 0.88 0.95 0.95 0.83 0.81 0.85 0.90 0.83 0.70 0.66 0.65 0.61 0.64 0.59 0.56 0.61 0.66 0.80 0.95 1.01 1.06 1.10 1.12 1.22 1.30 1.31 1.29 1.34 1.31 1.33 1.43 1.57 1.69 1.77 1.85 1.97 2.00
0.80 0.85 0.92 0.88 0.89 0.83 0.81 0.89 0.94 0.95 1.02 1.10 1.06 0.90 0.77 0.70 0.64 0.60 0.56 0.57 0.59 0.62 0.69 0.84 0.94 0.95 0.91 1.00 1.03 1.08 1.12 1.09 1.04 1.07 1.08 1.13 1.17 1.24 1.36 1.50 1.71 1.90 2.01
0.57 0.56 0.55 0.57 0.63 0.63 0.61 0.65 0.72 0.83 0.98 1.05 0.94 0.80 0.68 0.58 0.53 0.56 0.53 0.54 0.61 0.64 0.71 0.76 0.87 0.92 0.90 0.93 0.99 0.98 0.93 0.92 0.91 0.87 0.78 0.80 0.86 0.87 0.95 1.01 1.29 1.54 1.76
0.33 0.31 0.28 0.28 0.33 0.33 0.35 0.39 0.47 0.62 0.85 0.93 0.81 0.64 0.56 0.53 0.49 0.48 0.45 0.44 0.47 0.53 0.58 0.64 0.80 0.91 0.82 0.93 0.92 0.85 0.78 0.75 0.79 0.76 0.69 0.67 0.71 0.62 0.59 0.63 0.85 1.14 1.34
0.24 0.24 0.22 0.20 0.20 0.20 0.23 0.31 0.37 0.50 0.60 0.63 0.58 0.47 0.41 0.40 0.39 0.38 0.38 0.41 0.43 0.47 0.52 0.56 0.73 0.83 0.91 0.85 0.70 0.74 0.74 0.74 0.77 0.79 0.80 0.73 0.69 0.76 0.67 0.62 0.69 0.77 0.89
0.21 0.21 0.21 0.20 0.21 0.22 0.23 0.33 0.37 0.39 0.45 0.52 0.51 0.44 0.39 0.36 0.36 0.34 0.36 0.44 0.45 0.44 0.49 0.55 0.59 0.67 0.80 0.74 0.59 0.63 0.63 0.74 0.81 0.84 0.93 0.94 0.87 0.84 0.92 0.87 0.88 0.85 0.78
0.13 0.13 0.13 0.12 0.12 0.12 0.11 0.13 0.17 0.22 0.27 0.30 0.35 0.34 0.29 0.31 0.34 0.34 0.39 0.43 0.44 0.48 0.50 0.55 0.58 0.64 0.68 0.64 0.57 0.60 0.67 0.79 0.82 0.79 0.90 0.94 0.88 0.92 0.97 1.10 1.16 1.09 0.94
0.03 0.03 0.03 0.03 0.03 0.03 0.03 0.04 0.05 0.06 0.09 0.10 0.14 0.19 0.19 0.23 0.29 0.38 0.44 0.42 0.41 0.47 0.48 0.47 0.47 0.52 0.55 0.60 0.50 0.61 0.73 0.78 0.80 0.81 0.87 1.01 0.93 0.90 0.88 0.97 1.11 1.09 0.97
0.01 0.01 0.01 0.01 0.01 0.01 0.01 0.02 0.02 0.02 0.02 0.02 0.04 0.07 0.11 0.17 0.26 0.33 0.32 0.33 0.36 0.40 0.41 0.44 0.44 0.45 0.52 0.63 0.64 0.69 0.72 0.76 0.83 0.92 0.97 0.95 1.02 0.86 0.83 0.84 0.85 0.94 0.92
0.00 0.00 0.00 0.00 0.00 0.00 0.00 0.00 0.00 0.00 0.00 0.01 0.01 0.02 0.04 0.07 0.12 0.20 0.23 0.26 0.30 0.32 0.32 0.33 0.34 0.38 0.49 0.57 0.59 0.61 0.66 0.74 0.76 0.81 0.82 0.78 0.86 0.72 0.64 0.59 0.66 0.73 0.78
0.00 0.00 0.00 0.00 0.00 0.00 0.00 0.00 0.00 0.00 0.00 0.00 0.00 0.00 0.01 0.02 0.06 0.12 0.17 0.21 0.27 0.30 0.28 0.26 0.29 0.33 0.37 0.45 0.48 0.48 0.48 0.51 0.55 0.53 0.62 0.62 0.61 0.56 0.50 0.54 0.59 0.62 0.64
0.00 0.00 0.00 0.00 0.00 0.00 0.00 0.00 0.00 0.00 0.00 0.00 0.00 0.00 0.01 0.01 0.03 0.06 0.13 0.21 0.24 0.23 0.24 0.26 0.28 0.32 0.35 0.35 0.37 0.41 0.41 0.40 0.45 0.44 0.46 0.46 0.45 0.47 0.48 0.50 0.55 0.61 0.66
0.00 0.00 0.00 0.00 0.00 0.00 0.00 0.00 0.00 0.00 0.00 0.00 0.00 0.00 0.01 0.02 0.02 0.02 0.06 0.13 0.16 0.15 0.18 0.24 0.28 0.33 0.36 0.32 0.28 0.29 0.36 0.42 0.47 0.53 0.47 0.43 0.44 0.47 0.53 0.55 0.54 0.58 0.63
0.00 0.00 0.00 0.00 0.00 0.00 0.00 0.00 0.00 0.00 0.00 0.00 0.00 0.01 0.01 0.02 0.02 0.02 0.04 0.06 0.06 0.08 0.09 0.11 0.15 0.15 0.14 0.15 0.15 0.18 0.23 0.30 0.37 0.52 0.58 0.60 0.65 0.67 0.66 0.64 0.55 0.51 0.53

GEFSMW_prec_meanprecacc_150.txt.gz
Total_Precipitation_Accumulation
0.29 0.32 0.35 0.35 0.31 0.29 0.32 0.38 0.43 0.53 0.64 0.86 1.19 1.62 1.84 1.97 1.99 2.01 1.90 1.70 1.48 1.49 1.65 1.61 1.60 1.60 1.58 1.54 1.48 1.60 1.53 1.26 1.17 1.32 1.28 1.15 1.00 0.95 0.94 0.94 1.04 1.14 1.13
0.23 0.21 0.22 0.25 0.21 0.18 0.19 0.28 0.34 0.43 0.57 0.85 1.18 1.53 1.89 1.97 2.00 2.01 1.97 1.84 1.71 1.72 1.76 1.95 2.05 2.02 2.11 2.09 1.90 2.03 2.03 1.67 1.42 1.60 1.85 1.60 1.40 1.03 0.93 0.96 0.99 1.11 1.23
0.20 0.20 0.18 0.17 0.17 0.15 0.14 0.19 0.25 0.39 0.67 1.01 1.34 1.53 1.83 1.95 2.02 1.98 1.99 2.01 1.97 1.88 1.89 2.00 2.17 2.19 2.25 2.32 2.39 2.33 2.40 2.18 1.81 1.70 1.95 1.78 1.65 1.46 1.04 0.96 1.07 1.19 1.29
0.21 0.20 0.20 0.16 0.13 0.13 0.12 0.15 0.22 0.41 0.75 1.09 1.35 1.59 1.94 2.06 2.04 2.07 2.06 2.08 2.10 2.07 2.13 2.15 2.25 2.27 2.29 2.38 2.48 2.44 2.55 2.59 2.21 1.95 1.74 1.55 1.54 1.62 1.37 1.14 1.11 1.28 1.34
0.21 0.18 0.16 0.16 0.14 0.14 0.15 0.21 0.35 0.54 0.80 1.01 1.25 1.61 1.87 1.99 2.15 2.09 2.07 2.08 2.15 2.17 2.20 2.27 2.42 2.41 2.38 2.35 2.56 2.62 2.69 2.61 2.52 2.36 2.19 2.02 1.77 1.42 1.47 1.47 1.32 1.26 1.19
0.22 0.21 0.19 0.18 0.19 0.21 0.26 0.34 0.50 0.66 0.87 1.04 1.23 1.42 1.68 1.83 1.98 2.08 2.02 2.03 2.10 2.20 2.10 2.02 2.16 2.22 2.25 2.24 2.41 2.59 2.71 2.70 2.71 2.61 2.31 2.22 2.09 1.73 1.66 1.52 1.41 1.42 1.25
0.28 0.33 0.33 0.36 0.42 0.46 0.49 0.57 0.67 0.78 0.89 0.98 1.08 1.14 1.31 1.48 1.55 1.72 1.81 1.95 1.97 2.02 2.05 1.95 1.95 1.98 1.93 1.97 2.08 2.14 2.22 2.36 2.51 2.42 2.19 2.14 1.98 1.95 1.95 1.83 1.59 1.41 1.21
0.45 0.55 0.63 0.71 0.77 0.76 0.75 0.81 0.87 0.85 0.85 0.90 0.96 0.98 1.05 1.13 1.22 1.27 1.32 1.51 1.68 1.72 1.80 1.80 1.75 1.79 1.83 1.84 1.91 1.92 1.92 1.95 2.02 2.02 2.09 2.13 2.00 1.93 1.84 1.84 1.97 1.73 1.49
0.74 0.84 0.93 0.94 0.94 0.91 0.86 0.87 0.90 0.87 0.85 0.86 0.85 0.81 0.80 0.87 0.98 1.01 1.09 1.16 1.26 1.28 1.34 1.44 1.51 1.61 1.66 1.72 1.85 1.91 1.90 1.86 1.83 1.93 1.98 1.92 1.90 1.88 1.78 1.73 1.82 1.88 1.74
1.09 1.22 1.30 1.20 1.11 1.10 1.14 1.03 0.93 0.86 0.83 0.84 0.83 0.77 0.73 0.78 0.82 0.83 0.90 0.89 0.91 0.94 1.00 1.11 1.28 1.50 1.62 1.66 1.73 1.78 1.86 1.89 1.85 1.92 2.01 2.01 2.02 2.04 1.96 1.83 1.78 1.72 1.75
1.48 1.57 1.58 1.46 1.25 1.12 1.11 1.05 0.94 0.82 0.72 0.71 0.77 0.77 0.72 0.73 0.78 0.77 0.73 0.67 0.70 0.78 0.89 0.95 1.09 1.25 1.43 1.61 1.76 1.77 1.76 1.80 1.78 1.72 1.80 1.90 2.01 2.12 2.14 2.11 1.97 1.83 1.80
1.36 1.39 1.33 1.31 1.20 1.11 1.02 0.96 0.86 0.72 0.67 0.71 0.73 0.75 0.67 0.62 0.65 0.66 0.68 0.59 0.56 0.62 0.71 0.84 1.05 1.16 1.25 1.30 1.38 1.46 1.49 1.52 1.56 1.55 1.52 1.60 1.72 1.86 2.00 2.08 2.02 2.01 1.92
1.01 1.10 1.15 1.06 1.01 0.94 0.88 0.95 0.96 0.84 0.82 0.85 0.91 0.84 0.70 0.66 0.65 0.61 0.64 0.59 0.56 0.61 0.66 0.80 0.95 1.01 1.06 1.10 1.12 1.22 1.30 1.31 1.29 1.34 1.31 1.33 1.43 1.57 1.69 1.77 1.85 1.97 2.01
0.81 0.86 0.93 0.89 0.90 0.84 0.81 0.90 0.95 0.96 1.03 1.10 1.06 0.90 0.77 0.70 0.64 0.60 0.56 0.57 0.59 0.62 0.69 0.84 0.94 0.95 0.91 1.00 1.03 1.08 1.12 1.09 1.04 1.07 1.08 1.13 1.17 1.24 1.36 1.50 1.71 1.90 2.01
0.57 0.56 0.55 0.57 0.63 0.63 0.61 0.65 0.72 0.83 0.98 1.06 0.94 0.80 0.68 0.58 0.53 0.56 0.53 0.54 0.61 0.64 0.71 0.76 0.87 0.92 0.90 0.93 0.99 0.98 0.93 0.92 0.91 0.87 0.78 0.80 0.86 0.87 0.95 1.01 1.29 1.54 1.76
0.33 0.31 0.28 0.28 0.33 0.33 0.35 0.40 0.48 0.62 0.85 0.93 0.81 0.64 0.56 0.53 0.49 0.48 0.45 0.44 0.47 0.53 0.58 0.64 0.80 0.91 0.82 0.93 0.92 0.85 0.78 0.75 0.79 0.76 0.69 0.67 0.71 0.62 0.59 0.63 0.85 1.14 1.34
0.24 0.24 0.23 0.20 0.20 0.20 0.23 0.31 0.37 0.50 0.60 0.63 0.58 0.48 0.42 0.40 0.39 0.38 0.38 0.41 0.43 0.47 0.52 0.56 0.73 0.83 0.91 0.85 0.70 0.74 0.74 0.74 0.77 0.79 0.80 0.73 0.69 0.76 0.67 0.62 0.69 0.77 0.89
0.21 0.21 0.21 0.20 0.21 0.22 0.23 0.33 0.37 0.39 0.45 0.52 0.51 0.44 0.39 0.36 0.36 0.34 0.36 0.44 0.45 0.44 0.49 0.55 0.59 0.67 0.80 0.74 0.59 0.63 0.63 0.74 0.81 0.84 0.93 0.94 0.87 0.85 0.92 0.87 0.88 0.85 0.78
0.13 0.13 0.13 0.12 0.12 0.12 0.11 0.14 0.17 0.23 0.27 0.30 0.35 0.34 0.29 0.31 0.34 0.34 0.39 0.43 0.44 0.48 0.50 0.55 0.58 0.64 0.68 0.64 0.57 0.60 0.67 0.80 0.82 0.79 0.90 0.94 0.88 0.92 0.98 1.11 1.17 1.09 0.94
0.03 0.03 0.04 0.04 0.04 0.03 0.03 0.04 0.05 0.06 0.09 0.10 0.14 0.19 0.19 0.23 0.29 0.38 0.44 0.42 0.41 0.47 0.48 0.47 0.47 0.52 0.55 0.60 0.50 0.61 0.73 0.78 0.80 0.81 0.87 1.01 0.93 0.90 0.88 0.97 1.11 1.10 0.98
0.01 0.01 0.01 0.01 0.02 0.02 0.01 0.02 0.02 0.02 0.02 0.02 0.04 0.07 0.11 0.17 0.26 0.33 0.32 0.33 0.36 0.40 0.41 0.44 0.44 0.45 0.52 0.63 0.64 0.70 0.72 0.77 0.84 0.93 0.97 0.95 1.03 0.86 0.83 0.84 0.85 0.94 0.94
0.00 0.00 0.00 0.00 0.00 0.00 0.00 0.00 0.00 0.00 0.00 0.01 0.01 0.02 0.04 0.07 0.13 0.20 0.23 0.26 0.30 0.32 0.32 0.33 0.34 0.38 0.49 0.57 0.59 0.62 0.67 0.75 0.76 0.82 0.82 0.78 0.86 0.72 0.64 0.60 0.66 0.74 0.79
0.00 0.00 0.00 0.00 0.00 0.00 0.00 0.00 0.00 0.00 0.00 0.00 0.00 0.01 0.01 0.02 0.06 0.12 0.17 0.21 0.27 0.30 0.28 0.26 0.29 0.33 0.37 0.45 0.48 0.49 0.49 0.52 0.55 0.54 0.62 0.62 0.61 0.57 0.50 0.54 0.59 0.62 0.65
0.00 0.00 0.00 0.00 0.00 0.00 0.00 0.00 0.00 0.00 0.00 0.00 0.00 0.01 0.01 0.01 0.03 0.06 0.13 0.21 0.24 0.23 0.24 0.26 0.28 0.32 0.35 0.36 0.37 0.41 0.41 0.41 0.46 0.45 0.47 0.46 0.46 0.47 0.48 0.50 0.55 0.62 0.67
0.00 0.00 0.00 0.00 0.00 0.00 0.00 0.00 0.00 0.00 0.00 0.00 0.00 0.00 0.01 0.02 0.02 0.02 0.06 0.13 0.16 0.15 0.18 0.24 0.28 0.33 0.36 0.32 0.29 0.30 0.36 0.43 0.48 0.53 0.48 0.44 0.44 0.47 0.53 0.56 0.54 0.58 0.64
0.00 0.00 0.00 0.00 0.00 0.00 0.00 0.00 0.00 0.00 0.00 0.00 0.00 0.01 0.01 0.02 0.02 0.02 0.04 0.06 0.06 0.08 0.09 0.11 0.15 0.15 0.14 0.15 0.15 0.18 0.24 0.31 0.37 0.52 0.59 0.61 0.65 0.67 0.66 0.64 0.56 0.51 0.53

GEFSMW_prec_meanprecacc_156.txt.gz
Total_Precipitation_Accumulation
0.31 0.33 0.37 0.37 0.33 0.31 0.34 0.39 0.43 0.53 0.64 0.86 1.19 1.62 1.84 1.97 1.99 2.01 1.91 1.70 1.48 1.50 1.66 1.62 1.60 1.61 1.59 1.55 1.48 1.61 1.54 1.27 1.19 1.35 1.31 1.17 1.01 0.97 0.96 0.96 1.06 1.16 1.16
0.26 0.22 0.23 0.26 0.23 0.20 0.20 0.29 0.34 0.43 0.57 0.85 1.18 1.53 1.89 1.97 2.00 2.01 1.97 1.84 1.72 1.72 1.76 1.96 2.06 2.04 2.13 2.10 1.91 2.04 2.03 1.68 1.43 1.63 1.90 1.63 1.43 1.06 0.95 0.98 1.01 1.12 1.25
0.22 0.21 0.19 0.18 0.19 0.17 0.15 0.20 0.25 0.39 0.68 1.02 1.34 1.53 1.83 1.96 2.02 1.99 2.00 2.02 1.97 1.88 1.90 2.01 2.17 2.20 2.26 2.34 2.41 2.34 2.42 2.20 1.82 1.72 1.96 1.81 1.68 1.49 1.08 0.98 1.08 1.21 1.32
0.22 0.20 0.20 0.17 0.15 0.15 0.14 0.16 0.23 0.42 0.75 1.10 1.35 1.59 1.94 2.06 2.04 2.07 2.07 2.08 2.10 2.07 2.13 2.15 2.25 2.28 2.30 2.39 2.49 2.44 2.56 2.61 2.23 1.97 1.75 1.56 1.56 1.65 1.40 1.16 1.12 1.29 1.36
0.22 0.19 0.17 0.16 0.15 0.16 0.17 0.22 0.36 0.55 0.80 1.01 1.26 1.62 1.87 1.99 2.15 2.09 2.07 2.08 2.15 2.18 2.21 2.28 2.43 2.42 2.39 2.36 2.57 2.62 2.70 2.62 2.53 2.38 2.20 2.03 1.78 1.44 1.50 1.50 1.35 1.27 1.20
0.22 0.22 0.19 0.18 0.20 0.23 0.28 0.36 0.51 0.66 0.87 1.04 1.24 1.43 1.68 1.83 1.98 2.08 2.02 2.03 2.10 2.20 2.10 2.03 2.16 2.23 2.26 2.25 2.42 2.60 2.72 2.71 2.72 2.62 2.32 2.24 2.11 1.75 1.68 1.55 1.43 1.43 1.26
0.28 0.34 0.34 0.36 0.43 0.48 0.50 0.59 0.68 0.78 0.90 0.99 1.08 1.16 1.32 1.49 1.55 1.72 1.81 1.95 1.97 2.02 2.05 1.95 1.95 1.98 1.93 1.97 2.08 2.15 2.23 2.37 2.52 2.43 2.20 2.15 2.00 1.97 1.97 1.84 1.60 1.42 1.22
0.45 0.56 0.64 0.71 0.77 0.78 0.76 0.83 0.88 0.86 0.85 0.90 0.97 0.99 1.06 1.14 1.22 1.27 1.32 1.51 1.68 1.72 1.80 1.80 1.75 1.79 1.83 1.84 1.91 1.92 1.93 1.96 2.03 2.03 2.10 2.14 2.01 1.95 1.87 1.86 1.99 1.74 1.50
0.74 0.85 0.93 0.95 0.94 0.92 0.87 0.88 0.91 0.87 0.86 0.87 0.86 0.82 0.81 0.88 0.98 1.01 1.09 1.16 1.26 1.28 1.34 1.44 1.51 1.61 1.66 1.72 1.85 1.91 1.91 1.86 1.84 1.94 1.99 1.93 1.92 1.90 1.79 1.74 1.84 1.90 1.76
1.09 1.22 1.30 1.21 1.12 1.11 1.15 1.03 0.94 0.86 0.83 0.84 0.83 0.77 0.73 0.79 0.83 0.83 0.90 0.89 0.91 0.94 1.00 1.11 1.28 1.50 1.62 1.66 1.73 1.78 1.86 1.90 1.85 1.92 2.02 2.02 2.03 2.06 1.98 1.84 1.79 1.73 1.76
1.48 1.57 1.58 1.47 1.26 1.12 1.11 1.05 0.94 0.82 0.72 0.71 0.77 0.77 0.72 0.73 0.78 0.78 0.73 0.67 0.70 0.78 0.89 0.95 1.09 1.25 1.43 1.61 1.76 1.77 1.76 1.80 1.78 1.72 1.80 1.91 2.02 2.14 2.15 2.12 1.98 1.84 1.81
1.36 1.39 1.34 1.32 1.21 1.12 1.02 0.97 0.86 0.72 0.67 0.71 0.74 0.76 0.68 0.62 0.65 0.66 0.68 0.59 0.56 0.62 0.71 0.84 1.05 1.16 1.25 1.30 1.38 1.46 1.50 1.52 1.57 1.55 1.52 1.60 1.72 1.87 2.01 2.09 2.03 2.02 1.93
1.02 1.10 1.16 1.07 1.02 0.94 0.89 0.96 0.96 0.84 0.82 0.85 0.91 0.84 0.71 0.67 0.65 0.61 0.64 0.59 0.56 0.61 0.66 0.80 0.95 1.01 1.06 1.10 1.12 1.22 1.31 1.31 1.30 1.34 1.31 1.33 1.43 1.57 1.70 1.78 1.86 1.97 2.01
0.82 0.86 0.93 0.90 0.90 0.84 0.82 0.91 0.95 0.96 1.03 1.10 1.07 0.90 0.78 0.70 0.64 0.60 0.56 0.57 0.59 0.62 0.69 0.84 0.94 0.95 0.91 1.00 1.03 1.08 1.12 1.09 1.04 1.07 1.08 1.13 1.17 1.24 1.37 1.51 1.71 1.91 2.02
0.58 0.56 0.56 0.57 0.63 0.64 0.61 0.66 0.73 0.83 0.98 1.06 0.95 0.81 0.68 0.58 0.53 0.56 0.53 0.54 0.61 0.64 0.71 0.76 0.87 0.92 0.90 0.93 0.99 0.98 0.93 0.92 0.92 0.87 0.78 0.80 0.86 0.87 0.96 1.01 1.30 1.55 1.77
0.34 0.32 0.29 0.28 0.33 0.33 0.36 0.40 0.48 0.63 0.85 0.94 0.81 0.64 0.57 0.53 0.49 0.48 0.45 0.44 0.47 0.53 0.58 0.64 0.80 0.91 0.82 0.93 0.92 0.85 0.78 0.75 0.79 0.77 0.69 0.67 0.71 0.63 0.59 0.63 0.85 1.14 1.35
0.25 0.25 0.23 0.21 0.21 0.20 0.23 0.31 0.37 0.50 0.61 0.64 0.59 0.48 0.42 0.40 0.39 0.38 0.38 0.41 0.43 0.47 0.52 0.56 0.73 0.83 0.91 0.85 0.70 0.74 0.74 0.74 0.77 0.79 0.81 0.73 0.69 0.76 0.68 0.62 0.69 0.78 0.89
0.22 0.22 0.22 0.21 0.22 0.22 0.24 0.33 0.38 0.40 0.46 0.53 0.51 0.44 0.39 0.36 0.36 0.34 0.36 0.44 0.45 0.44 0.49 0.55 0.59 0.67 0.80 0.74 0.59 0.63 0.63 0.74 0.81 0.84 0.93 0.94 0.88 0.85 0.92 0.88 0.88 0.85 0.78
0.13 0.14 0.14 0.13 0.13 0.12 0.11 0.14 0.18 0.23 0.27 0.30 0.35 0.34 0.29 0.31 0.34 0.34 0.39 0.43 0.44 0.48 0.50 0.55 0.58 0.64 0.68 0.64 0.57 0.60 0.67 0.80 0.82 0.79 0.90 0.94 0.88 0.92 0.98 1.11 1.17 1.09 0.94
0.04 0.04 0.04 0.04 0.04 0.03 0.03 0.04 0.05 0.07 0.09 0.10 0.14 0.19 0.19 0.23 0.29 0.38 0.44 0.42 0.41 0.47 0.48 0.47 0.47 0.52 0.55 0.60 0.50 0.61 0.73 0.78 0.80 0.81 0.87 1.01 0.93 0.90 0.88 0.97 1.12 1.11 0.98
0.01 0.01 0.01 0.02 0.02 0.02 0.02 0.02 0.02 0.02 0.03 0.03 0.04 0.07 0.11 0.17 0.26 0.33 0.32 0.33 0.36 0.40 0.41 0.44 0.44 0.45 0.52 0.63 0.64 0.70 0.72 0.77 0.84 0.93 0.98 0.95 1.03 0.86 0.83 0.84 0.86 0.95 0.94
0.00 0.00 0.00 0.01 0.01 0.01 0.01 0.00 0.00 0.01 0.01 0.01 0.01 0.02 0.04 0.07 0.13 0.20 0.23 0.26 0.30 0.32 0.32 0.33 0.34 0.38 0.49 0.57 0.59 0.62 0.67 0.75 0.76 0.82 0.82 0.78 0.86 0.72 0.64 0.60 0.66 0.74 0.79
0.00 0.00 0.00 0.00 0.01 0.00 0.00 0.00 0.00 0.01 0.01 0.00 0.00 0.01 0.01 0.02 0.06 0.12 0.17 0.21 0.27 0.30 0.28 0.26 0.29 0.33 0.37 0.45 0.48 0.49 0.49 0.52 0.55 0.54 0.62 0.63 0.62 0.58 0.51 0.55 0.60 0.62 0.65
0.00 0.00 0.00 0.01 0.01 0.01 0.01 0.01 0.01 0.01 0.00 0.00 0.00 0.01 0.01 0.02 0.03 0.06 0.13 0.21 0.24 0.23 0.24 0.26 0.28 0.32 0.35 0.36 0.37 0.41 0.41 0.41 0.46 0.45 0.47 0.47 0.47 0.48 0.49 0.52 0.57 0.62 0.67
0.00 0.00 0.00 0.01 0.01 0.01 0.01 0.01 0.01 0.00 0.00 0.00 0.00 0.01 0.01 0.02 0.02 0.02 0.06 0.13 0.16 0.15 0.19 0.24 0.28 0.33 0.36 0.32 0.29 0.30 0.36 0.43 0.48 0.55 0.50 0.46 0.46 0.48 0.55 0.58 0.57 0.61 0.65
0.00 0.00 0.00 0.01 0.01 0.01 0.01 0.00 0.00 0.00 0.00 0.00 0.00 0.01 0.01 0.02 0.02 0.03 0.04 0.06 0.07 0.09 0.09 0.11 0.15 0.15 0.14 0.15 0.15 0.18 0.24 0.31 0.38 0.53 0.60 0.62 0.67 0.69 0.68 0.67 0.58 0.54 0.55

GEFSMW_prec_meanprecacc_162.txt.gz
Total_Precipitation_Accumulation
0.33 0.36 0.39 0.38 0.33 0.31 0.35 0.40 0.44 0.54 0.65 0.87 1.19 1.62 1.84 1.97 1.99 2.01 1.91 1.70 1.48 1.50 1.66 1.63 1.61 1.63 1.61 1.57 1.51 1.64 1.58 1.31 1.21 1.40 1.36 1.21 1.04 0.99 0.98 0.99 1.12 1.21 1.20
0.28 0.24 0.26 0.28 0.24 0.21 0.21 0.30 0.36 0.45 0.58 0.86 1.18 1.53 1.89 1.97 2.00 2.01 1.97 1.84 1.72 1.73 1.77 1.97 2.07 2.05 2.15 2.12 1.93 2.07 2.07 1.70 1.46 1.68 1.96 1.69 1.47 1.09 0.98 1.02 1.05 1.17 1.30
0.24 0.22 0.20 0.20 0.20 0.18 0.16 0.21 0.26 0.40 0.69 1.02 1.34 1.53 1.83 1.96 2.02 1.99 2.00 2.02 1.97 1.88 1.90 2.01 2.18 2.21 2.27 2.35 2.42 2.37 2.46 2.23 1.85 1.74 2.01 1.88 1.75 1.54 1.13 1.03 1.12 1.26 1.36
0.24 0.22 0.21 0.17 0.15 0.15 0.14 0.17 0.24 0.43 0.77 1.10 1.36 1.59 1.94 2.06 2.04 2.07 2.08 2.08 2.11 2.07 2.14 2.16 2.26 2.30 2.32 2.41 2.51 2.46 2.59 2.64 2.26 2.00 1.78 1.60 1.60 1.71 1.47 1.21 1.16 1.32 1.38
0.23 0.19 0.17 0.16 0.15 0.16 0.17 0.22 0.36 0.56 0.82 1.02 1.26 1.62 1.87 1.99 2.15 2.10 2.08 2.09 2.16 2.18 2.22 2.28 2.44 2.43 2.40 2.38 2.59 2.64 2.72 2.64 2.56 2.41 2.24 2.08 1.83 1.49 1.57 1.57 1.40 1.30 1.22
0.24 0.22 0.20 0.19 0.20 0.23 0.28 0.36 0.51 0.66 0.88 1.06 1.25 1.43 1.69 1.83 1.98 2.08 2.02 2.03 2.11 2.21 2.10 2.03 2.17 2.24 2.27 2.25 2.43 2.61 2.74 2.73 2.75 2.65 2.36 2.30 2.16 1.81 1.74 1.60 1.48 1.47 1.28
0.29 0.34 0.34 0.37 0.43 0.48 0.50 0.59 0.68 0.78 0.91 1.01 1.11 1.17 1.32 1.49 1.55 1.72 1.81 1.95 1.97 2.03 2.06 1.96 1.95 1.98 1.93 1.98 2.09 2.16 2.24 2.38 2.54 2.44 2.23 2.18 2.03 2.01 2.01 1.88 1.64 1.45 1.24
0.46 0.56 0.64 0.71 0.77 0.78 0.76 0.83 0.89 0.88 0.86 0.91 0.97 1.00 1.06 1.14 1.22 1.27 1.32 1.51 1.68 1.72 1.80 1.81 1.75 1.79 1.84 1.85 1.92 1.93 1.94 1.97 2.04 2.04 2.12 2.17 2.04 1.97 1.89 1.88 2.02 1.78 1.53
0.75 0.85 0.94 0.95 0.94 0.92 0.87 0.88 0.91 0.89 0.87 0.88 0.86 0.82 0.81 0.88 0.99 1.01 1.09 1.16 1.26 1.28 1.34 1.44 1.52 1.61 1.66 1.72 1.86 1.93 1.92 1.87 1.84 1.95 2.01 1.95 1.94 1.91 1.80 1.77 1.88 1.95 1.81
1.10 1.23 1.30 1.21 1.12 1.11 1.15 1.04 0.95 0.88 0.84 0.84 0.84 0.77 0.73 0.79 0.83 0.83 0.90 0.89 0.91 0.94 1.00 1.11 1.28 1.50 1.63 1.67 1.74 1.79 1.87 1.90 1.86 1.93 2.02 2.03 2.04 2.07 1.99 1.86 1.82 1.76 1.80
1.49 1.58 1.59 1.47 1.27 1.13 1.11 1.06 0.95 0.83 0.73 0.72 0.77 0.77 0.72 0.73 0.78 0.78 0.73 0.67 0.70 0.78 0.89 0.95 1.09 1.25 1.43 1.61 1.76 1.77 1.77 1.81 1.79 1.73 1.81 1.92 2.03 2.16 2.17 2.15 2.02 1.87 1.83
1.37 1.40 1.34 1.33 1.22 1.12 1.03 0.97 0.86 0.72 0.67 0.71 0.74 0.76 0.68 0.62 0.65 0.66 0.68 0.59 0.56 0.62 0.71 0.84 1.05 1.16 1.25 1.30 1.38 1.46 1.50 1.53 1.58 1.56 1.54 1.62 1.73 1.88 2.03 2.10 2.05 2.04 1.95
1.03 1.12 1.16 1.07 1.02 0.95 0.90 0.97 0.96 0.84 0.82 0.85 0.91 0.84 0.71 0.67 0.65 0.61 0.64 0.59 0.56 0.61 0.66 0.80 0.95 1.01 1.06 1.10 1.12 1.22 1.31 1.32 1.30 1.35 1.32 1.34 1.44 1.58 1.72 1.80 1.87 1.99 2.03
0.85 0.89 0.94 0.90 0.91 0.84 0.82 0.91 0.96 0.96 1.03 1.10 1.07 0.90 0.78 0.70 0.64 0.60 0.56 0.57 0.59 0.62 0.69 0.84 0.94 0.95 0.91 1.00 1.03 1.08 1.12 1.09 1.04 1.08 1.09 1.14 1.18 1.26 1.38 1.52 1.73 1.93 2.04
0.62 0.60 0.57 0.58 0.63 0.64 0.62 0.66 0.73 0.84 0.98 1.06 0.95 0.81 0.68 0.58 0.53 0.56 0.53 0.54 0.61 0.64 0.71 0.76 0.87 0.92 0.90 0.93 0.99 0.98 0.93 0.92 0.92 0.88 0.79 0.81 0.87 0.88 0.96 1.02 1.30 1.56 1.79
0.37 0.35 0.31 0.29 0.33 0.34 0.36 0.40 0.48 0.63 0.86 0.94 0.82 0.65 0.57 0.54 0.49 0.48 0.45 0.44 0.47 0.53 0.58 0.64 0.80 0.91 0.82 0.93 0.92 0.85 0.78 0.75 0.79 0.77 0.70 0.68 0.72 0.63 0.60 0.63 0.85 1.15 1.36
0.27 0.27 0.24 0.21 0.22 0.21 0.24 0.32 0.38 0.51 0.62 0.66 0.60 0.48 0.42 0.40 0.39 0.38 0.38 0.41 0.43 0.47 0.52 0.56 0.73 0.83 0.91 0.85 0.70 0.74 0.74 0.74 0.77 0.79 0.81 0.74 0.69 0.77 0.68 0.62 0.69 0.78 0.89
0.24 0.24 0.24 0.23 0.24 0.26 0.27 0.36 0.40 0.42 0.47 0.54 0.53 0.45 0.40 0.37 0.36 0.35 0.36 0.44 0.45 0.44 0.49 0.55 0.59 0.67 0.80 0.74 0.59 0.63 0.63 0.74 0.81 0.84 0.93 0.94 0.88 0.85 0.93 0.88 0.89 0.85 0.78
0.15 0.15 0.15 0.14 0.14 0.14 0.14 0.16 0.20 0.25 0.28 0.31 0.36 0.35 0.30 0.31 0.34 0.34 0.40 0.44 0.44 0.48 0.50 0.55 0.58 0.64 0.68 0.64 0.57 0.60 0.67 0.80 0.82 0.79 0.90 0.94 0.88 0.92 0.98 1.11 1.17 1.10 0.94
0.05 0.05 0.05 0.05 0.05 0.04 0.04 0.05 0.06 0.07 0.09 0.10 0.15 0.19 0.20 0.23 0.29 0.38 0.44 0.42 0.41 0.47 0.48 0.47 0.47 0.52 0.55 0.60 0.50 0.61 0.73 0.78 0.80 0.81 0.87 1.01 0.93 0.90 0.88 0.97 1.12 1.11 0.98
0.02 0.01 0.02 0.02 0.02 0.02 0.03 0.03 0.04 0.03 0.03 0.03 0.04 0.07 0.12 0.17 0.26 0.33 0.32 0.33 0.36 0.40 0.41 0.44 0.44 0.45 0.52 0.63 0.64 0.70 0.72 0.77 0.84 0.93 0.98 0.95 1.03 0.86 0.83 0.84 0.86 0.95 0.94
0.01 0.01 0.01 0.01 0.01 0.01 0.01 0.02 0.02 0.01 0.01 0.01 0.01 0.02 0.05 0.07 0.13 0.20 0.23 0.26 0.30 0.32 0.32 0.33 0.34 0.38 0.49 0.57 0.59 0.62 0.67 0.75 0.76 0.82 0.82 0.78 0.86 0.72 0.64 0.60 0.66 0.74 0.80
0.00 0.00 0.01 0.01 0.01 0.00 0.00 0.00 0.01 0.01 0.01 0.01 0.01 0.01 0.01 0.02 0.06 0.12 0.17 0.21 0.27 0.30 0.28 0.27 0.29 0.33 0.37 0.45 0.49 0.49 0.49 0.52 0.56 0.54 0.62 0.63 0.62 0.58 0.51 0.56 0.60 0.63 0.66
0.00 0.01 0.01 0.01 0.01 0.01 0.01 0.01 0.01 0.01 0.01 0.01 0.01 0.01 0.01 0.02 0.03 0.06 0.13 0.22 0.24 0.23 0.24 0.26 0.29 0.32 0.35 0.36 0.37 0.41 0.41 0.41 0.46 0.45 0.47 0.48 0.47 0.49 0.50 0.53 0.57 0.63 0.67
0.00 0.01 0.01 0.01 0.01 0.01 0.01 0.01 0.01 0.01 0.01 0.01 0.01 0.01 0.01 0.02 0.02 0.03 0.07 0.14 0.16 0.16 0.19 0.24 0.28 0.33 0.36 0.33 0.29 0.30 0.37 0.43 0.48 0.55 0.50 0.47 0.47 0.50 0.56 0.59 0.58 0.61 0.66
0.01 0.00 0.01 0.02 0.02 0.01 0.01 0.01 0.01 0.01 0.01 0.02 0.01 0.01 0.01 0.02 0.02 0.03 0.04 0.07 0.07 0.09 0.10 0.11 0.15 0.15 0.15 0.16 0.16 0.18 0.24 0.31 0.38 0.53 0.61 0.63 0.68 0.71 0.70 0.68 0.60 0.55 0.56

GEFSMW_prec_meanprecacc_168.txt.gz
Total_Precipitation_Accumulation
0.36 0.40 0.42 0.41 0.35 0.32 0.36 0.41 0.46 0.56 0.68 0.90 1.21 1.63 1.84 1.98 2.00 2.01 1.91 1.70 1.48 1.50 1.67 1.64 1.62 1.63 1.61 1.57 1.51 1.64 1.58 1.32 1.23 1.41 1.38 1.24 1.07 1.03 1.02 1.03 1.15 1.24 1.23
0.30 0.27 0.30 0.31 0.26 0.22 0.22 0.31 0.37 0.46 0.61 0.89 1.20 1.53 1.89 1.97 2.00 2.01 1.97 1.85 1.72 1.73 1.77 1.97 2.08 2.05 2.15 2.12 1.94 2.07 2.07 1.71 1.47 1.68 1.97 1.70 1.49 1.12 1.02 1.07 1.10 1.19 1.33
0.25 0.25 0.24 0.24 0.22 0.19 0.16 0.21 0.27 0.41 0.70 1.05 1.36 1.54 1.84 1.96 2.02 1.99 2.00 2.02 1.98 1.88 1.90 2.01 2.18 2.21 2.27 2.36 2.43 2.37 2.46 2.24 1.86 1.74 2.01 1.88 1.75 1.56 1.17 1.08 1.17 1.31 1.40
0.25 0.24 0.25 0.21 0.17 0.16 0.15 0.17 0.24 0.44 0.77 1.12 1.37 1.60 1.95 2.06 2.04 2.07 2.08 2.09 2.11 2.07 2.14 2.16 2.27 2.30 2.32 2.41 2.51 2.47 2.60 2.64 2.27 2.00 1.79 1.61 1.61 1.72 1.48 1.23 1.20 1.37 1.42
0.24 0.22 0.21 0.19 0.17 0.17 0.18 0.22 0.36 0.56 0.82 1.03 1.28 1.63 1.88 1.99 2.15 2.10 2.08 2.10 2.16 2.18 2.22 2.28 2.44 2.43 2.41 2.38 2.59 2.64 2.72 2.65 2.56 2.41 2.25 2.09 1.84 1.50 1.57 1.58 1.43 1.33 1.26
0.25 0.25 0.23 0.21 0.21 0.24 0.29 0.36 0.51 0.66 0.89 1.07 1.27 1.45 1.69 1.84 1.98 2.08 2.03 2.04 2.12 2.22 2.12 2.03 2.17 2.24 2.27 2.26 2.44 2.61 2.74 2.73 2.75 2.66 2.37 2.30 2.16 1.82 1.75 1.61 1.49 1.48 1.31
0.31 0.36 0.36 0.38 0.44 0.48 0.51 0.59 0.68 0.79 0.91 1.01 1.12 1.18 1.33 1.50 1.55 1.72 1.81 1.95 1.97 2.04 2.09 1.97 1.95 1.98 1.94 1.98 2.10 2.16 2.24 2.39 2.54 2.45 2.24 2.19 2.04 2.02 2.02 1.89 1.65 1.47 1.26
0.48 0.57 0.65 0.73 0.79 0.78 0.77 0.84 0.90 0.88 0.87 0.92 0.98 1.01 1.07 1.15 1.22 1.27 1.32 1.51 1.68 1.73 1.82 1.81 1.76 1.80 1.84 1.85 1.93 1.94 1.95 1.97 2.05 2.05 2.13 2.18 2.05 1.98 1.90 1.91 2.04 1.80 1.55
0.76 0.86 0.94 0.95 0.95 0.93 0.88 0.89 0.92 0.90 0.88 0.88 0.87 0.83 0.82 0.89 0.99 1.01 1.09 1.16 1.26 1.28 1.35 1.45 1.52 1.61 1.66 1.72 1.86 1.93 1.92 1.87 1.85 1.95 2.01 1.96 1.94 1.91 1.81 1.78 1.90 1.96 1.81
1.12 1.24 1.32 1.22 1.13 1.12 1.16 1.05 0.96 0.89 0.85 0.85 0.84 0.78 0.74 0.79 0.83 0.83 0.90 0.90 0.91 0.94 1.00 1.11 1.28 1.50 1.63 1.67 1.74 1.79 1.87 1.90 1.86 1.93 2.03 2.04 2.04 2.07 1.99 1.87 1.83 1.76 1.80
1.52 1.61 1.61 1.50 1.29 1.15 1.14 1.07 0.96 0.84 0.74 0.73 0.78 0.77 0.72 0.74 0.78 0.78 0.73 0.67 0.70 0.78 0.90 0.95 1.09 1.25 1.43 1.61 1.76 1.78 1.78 1.81 1.79 1.73 1.82 1.94 2.03 2.16 2.18 2.16 2.03 1.88 1.84
1.39 1.43 1.37 1.35 1.23 1.14 1.05 0.99 0.88 0.74 0.68 0.72 0.74 0.76 0.68 0.63 0.66 0.67 0.69 0.59 0.56 0.62 0.71 0.85 1.05 1.16 1.25 1.30 1.38 1.46 1.51 1.54 1.58 1.57 1.55 1.62 1.74 1.89 2.04 2.12 2.06 2.05 1.95
1.06 1.15 1.19 1.08 1.04 0.97 0.91 0.98 0.98 0.86 0.83 0.86 0.91 0.84 0.71 0.67 0.65 0.61 0.64 0.59 0.56 0.61 0.66 0.80 0.95 1.01 1.06 1.10 1.12 1.23 1.31 1.32 1.31 1.36 1.33 1.35 1.45 1.59 1.72 1.80 1.88 1.99 2.04
0.88 0.91 0.96 0.91 0.93 0.86 0.83 0.92 0.97 0.97 1.04 1.11 1.07 0.91 0.78 0.71 0.65 0.60 0.57 0.57 0.59 0.62 0.69 0.84 0.94 0.95 0.91 1.00 1.03 1.09 1.13 1.09 1.05 1.08 1.09 1.14 1.18 1.26 1.38 1.52 1.73 1.93 2.04
0.66 0.63 0.59 0.60 0.66 0.66 0.63 0.67 0.75 0.84 0.99 1.06 0.95 0.81 0.69 0.59 0.55 0.57 0.53 0.55 0.61 0.64 0.71 0.76 0.87 0.92 0.90 0.93 0.99 0.98 0.93 0.92 0.92 0.88 0.79 0.81 0.87 0.88 0.97 1.02 1.31 1.56 1.79
0.41 0.39 0.34 0.32 0.36 0.35 0.37 0.41 0.50 0.64 0.86 0.94 0.82 0.65 0.58 0.55 0.51 0.49 0.46 0.45 0.47 0.53 0.58 0.64 0.80 0.91 0.82 0.93 0.93 0.85 0.78 0.75 0.80 0.77 0.70 0.68 0.72 0.63 0.60 0.63 0.85 1.15 1.36
0.31 0.30 0.28 0.24 0.24 0.25 0.28 0.35 0.42 0.54 0.64 0.67 0.62 0.51 0.45 0.43 0.41 0.39 0.39 0.41 0.44 0.47 0.52 0.56 0.73 0.83 0.91 0.85 0.70 0.74 0.74 0.74 0.77 0.79 0.81 0.74 0.69 0.77 0.68 0.62 0.69 0.78 0.89
0.26 0.26 0.26 0.26 0.28 0.31 0.32 0.41 0.45 0.46 0.50 0.56 0.57 0.48 0.42 0.39 0.38 0.36 0.37 0.45 0.45 0.44 0.49 0.55 0.59 0.67 0.80 0.74 0.59 0.64 0.63 0.74 0.81 0.84 0.93 0.94 0.88 0.85 0.93 0.88 0.89 0.85 0.78
0.16 0.16 0.17 0.16 0.17 0.19 0.22 0.24 0.24 0.27 0.29 0.33 0.38 0.37 0.32 0.32 0.36 0.35 0.40 0.44 0.44 0.48 0.50 0.55 0.58 0.64 0.68 0.65 0.57 0.61 0.67 0.80 0.82 0.79 0.90 0.94 0.88 0.92 0.98 1.11 1.17 1.10 0.94
0.07 0.06 0.07 0.07 0.07 0.06 0.09 0.11 0.10 0.09 0.10 0.11 0.16 0.20 0.20 0.23 0.29 0.39 0.45 0.43 0.41 0.47 0.48 0.48 0.48 0.53 0.55 0.60 0.51 0.62 0.73 0.78 0.80 0.81 0.87 1.01 0.93 0.90 0.88 0.97 1.12 1.11 0.98
0.04 0.04 0.04 0.05 0.04 0.04 0.05 0.07 0.06 0.04 0.04 0.04 0.05 0.08 0.12 0.17 0.26 0.33 0.33 0.33 0.37 0.40 0.42 0.45 0.44 0.45 0.53 0.64 0.65 0.70 0.72 0.77 0.84 0.93 0.98 0.95 1.03 0.86 0.83 0.84 0.86 0.95 0.95
0.03 0.03 0.03 0.04 0.03 0.02 0.02 0.04 0.04 0.02 0.02 0.02 0.02 0.03 0.05 0.08 0.13 0.20 0.24 0.27 0.31 0.33 0.33 0.33 0.34 0.38 0.50 0.58 0.60 0.62 0.67 0.75 0.76 0.82 0.82 0.78 0.86 0.72 0.64 0.60 0.66 0.74 0.80
0.02 0.02 0.03 0.03 0.02 0.01 0.01 0.01 0.02 0.02 0.02 0.01 0.01 0.02 0.02 0.03 0.07 0.13 0.18 0.21 0.28 0.30 0.29 0.27 0.29 0.33 0.38 0.45 0.49 0.49 0.49 0.52 0.56 0.54 0.62 0.63 0.62 0.58 0.51 0.56 0.60 0.63 0.66
0.01 0.02 0.03 0.03 0.02 0.01 0.01 0.01 0.02 0.02 0.02 0.01 0.01 0.01 0.01 0.02 0.04 0.07 0.13 0.22 0.24 0.23 0.24 0.26 0.29 0.32 0.35 0.36 0.37 0.41 0.41 0.41 0.46 0.45 0.48 0.48 0.48 0.49 0.50 0.53 0.57 0.63 0.68
0.01 0.02 0.02 0.02 0.03 0.02 0.01 0.01 0.01 0.01 0.02 0.02 0.01 0.01 0.01 0.02 0.02 0.03 0.07 0.14 0.16 0.16 0.19 0.24 0.28 0.33 0.36 0.33 0.29 0.30 0.37 0.43 0.48 0.55 0.50 0.47 0.47 0.50 0.56 0.59 0.58 0.62 0.67
0.01 0.01 0.02 0.03 0.03 0.02 0.01 0.01 0.01 0.01 0.01 0.02 0.01 0.01 0.02 0.02 0.02 0.03 0.04 0.07 0.07 0.09 0.10 0.11 0.15 0.15 0.15 0.16 0.16 0.19 0.24 0.31 0.38 0.53 0.61 0.63 0.68 0.71 0.70 0.68 0.60 0.55 0.57

GEFSMW_prec_meanprecacc_174.txt.gz
Total_Precipitation_Accumulation
0.38 0.41 0.44 0.42 0.35 0.33 0.37 0.43 0.49 0.59 0.72 0.92 1.22 1.63 1.85 1.98 2.00 2.02 1.91 1.70 1.49 1.50 1.67 1.64 1.62 1.63 1.61 1.57 1.51 1.64 1.59 1.33 1.25 1.42 1.39 1.25 1.09 1.06 1.04 1.05 1.18 1.26 1.24
0.32 0.29 0.31 0.32 0.27 0.23 0.23 0.33 0.40 0.49 0.64 0.92 1.22 1.55 1.91 1.98 2.00 2.01 1.97 1.85 1.72 1.73 1.77 1.98 2.08 2.05 2.15 2.12 1.94 2.07 2.07 1.71 1.48 1.70 1.99 1.72 1.52 1.15 1.05 1.11 1.13 1.22 1.35
0.28 0.27 0.26 0.26 0.24 0.21 0.18 0.24 0.29 0.43 0.73 1.07 1.39 1.58 1.86 1.97 2.03 1.99 2.01 2.02 1.98 1.89 1.90 2.02 2.19 2.21 2.28 2.36 2.43 2.38 2.47 2.25 1.87 1.76 2.02 1.90 1.77 1.58 1.19 1.11 1.20 1.34 1.42
0.27 0.26 0.27 0.24 0.20 0.17 0.16 0.19 0.26 0.45 0.79 1.14 1.39 1.63 1.98 2.08 2.05 2.08 2.08 2.09 2.11 2.07 2.15 2.17 2.28 2.31 2.32 2.41 2.52 2.48 2.61 2.65 2.27 2.00 1.79 1.62 1.62 1.73 1.49 1.25 1.22 1.39 1.43
0.25 0.23 0.22 0.22 0.20 0.18 0.18 0.23 0.37 0.57 0.83 1.04 1.30 1.66 1.91 2.03 2.17 2.10 2.09 2.10 2.16 2.18 2.22 2.28 2.45 2.44 2.41 2.39 2.59 2.64 2.73 2.65 2.56 2.42 2.25 2.09 1.84 1.51 1.57 1.58 1.43 1.34 1.26
0.26 0.26 0.24 0.23 0.23 0.25 0.30 0.37 0.52 0.67 0.89 1.08 1.29 1.48 1.73 1.86 1.99 2.09 2.04 2.04 2.12 2.22 2.12 2.03 2.17 2.24 2.27 2.26 2.45 2.62 2.74 2.73 2.75 2.66 2.37 2.30 2.16 1.82 1.76 1.62 1.50 1.49 1.32
0.33 0.36 0.37 0.40 0.46 0.49 0.52 0.60 0.69 0.80 0.92 1.02 1.14 1.21 1.38 1.53 1.57 1.73 1.82 1.95 1.97 2.04 2.09 1.97 1.96 1.99 1.94 1.99 2.11 2.17 2.24 2.39 2.54 2.45 2.24 2.19 2.04 2.02 2.02 1.90 1.65 1.48 1.27
0.49 0.59 0.66 0.74 0.80 0.79 0.77 0.84 0.90 0.89 0.88 0.93 1.00 1.03 1.10 1.19 1.25 1.29 1.33 1.51 1.68 1.73 1.82 1.81 1.76 1.80 1.84 1.85 1.93 1.94 1.95 1.98 2.05 2.05 2.13 2.19 2.06 1.98 1.91 1.92 2.06 1.81 1.57
0.78 0.87 0.95 0.97 0.96 0.93 0.88 0.89 0.93 0.91 0.89 0.90 0.89 0.85 0.84 0.91 1.01 1.02 1.09 1.17 1.27 1.28 1.35 1.45 1.52 1.61 1.66 1.72 1.86 1.93 1.92 1.87 1.85 1.95 2.02 1.97 1.95 1.92 1.81 1.79 1.92 1.98 1.84
1.13 1.25 1.33 1.24 1.14 1.14 1.17 1.05 0.96 0.90 0.86 0.86 0.86 0.79 0.76 0.81 0.85 0.84 0.91 0.90 0.92 0.94 1.00 1.11 1.28 1.50 1.63 1.67 1.74 1.79 1.87 1.91 1.86 1.94 2.03 2.05 2.05 2.07 1.99 1.87 1.84 1.77 1.81
1.53 1.63 1.63 1.52 1.31 1.17 1.16 1.08 0.97 0.85 0.75 0.74 0.79 0.79 0.74 0.76 0.81 0.80 0.75 0.68 0.72 0.79 0.91 0.95 1.09 1.25 1.43 1.61 1.76 1.78 1.78 1.81 1.79 1.73 1.82 1.94 2.03 2.16 2.18 2.16 2.04 1.88 1.84
1.40 1.45 1.40 1.38 1.25 1.16 1.07 1.00 0.88 0.74 0.69 0.73 0.75 0.77 0.69 0.64 0.68 0.69 0.70 0.61 0.58 0.62 0.72 0.85 1.05 1.16 1.25 1.30 1.38 1.46 1.51 1.54 1.58 1.57 1.55 1.62 1.74 1.89 2.04 2.12 2.06 2.05 1.95
1.07 1.16 1.22 1.11 1.06 0.99 0.93 0.99 0.99 0.87 0.84 0.87 0.93 0.86 0.72 0.68 0.66 0.64 0.66 0.61 0.58 0.61 0.66 0.80 0.96 1.01 1.06 1.10 1.12 1.23 1.31 1.32 1.31 1.36 1.33 1.35 1.45 1.59 1.72 1.81 1.88 2.00 2.04
0.89 0.92 0.98 0.94 0.95 0.89 0.85 0.94 0.98 0.98 1.05 1.13 1.09 0.92 0.79 0.71 0.65 0.62 0.60 0.60 0.60 0.63 0.69 0.85 0.94 0.95 0.91 1.00 1.03 1.09 1.13 1.10 1.05 1.08 1.09 1.14 1.19 1.26 1.38 1.53 1.74 1.93 2.04
0.67 0.64 0.60 0.62 0.68 0.68 0.65 0.69 0.76 0.86 1.01 1.08 0.97 0.83 0.70 0.60 0.55 0.58 0.55 0.57 0.63 0.65 0.71 0.77 0.88 0.92 0.90 0.93 1.00 0.99 0.93 0.93 0.92 0.88 0.79 0.81 0.88 0.89 0.97 1.02 1.31 1.56 1.79
0.42 0.40 0.36 0.34 0.39 0.38 0.39 0.43 0.52 0.67 0.88 0.96 0.83 0.66 0.58 0.56 0.52 0.50 0.47 0.46 0.48 0.54 0.59 0.64 0.80 0.92 0.82 0.94 0.93 0.85 0.78 0.76 0.80 0.77 0.70 0.68 0.72 0.63 0.60 0.64 0.85 1.15 1.36
0.32 0.31 0.30 0.26 0.27 0.27 0.30 0.37 0.44 0.56 0.66 0.69 0.64 0.52 0.45 0.43 0.41 0.40 0.40 0.42 0.44 0.47 0.52 0.57 0.73 0.83 0.91 0.86 0.71 0.74 0.74 0.75 0.77 0.79 0.81 0.74 0.69 0.77 0.68 0.62 0.69 0.78 0.89
0.27 0.26 0.27 0.28 0.30 0.34 0.36 0.45 0.49 0.49 0.52 0.59 0.59 0.50 0.42 0.39 0.38 0.36 0.37 0.45 0.46 0.44 0.49 0.55 0.59 0.67 0.80 0.74 0.60 0.64 0.64 0.74 0.82 0.84 0.93 0.94 0.88 0.85 0.93 0.88 0.89 0.85 0.78
0.17 0.17 0.17 0.17 0.19 0.21 0.25 0.27 0.28 0.29 0.32 0.36 0.41 0.38 0.32 0.34 0.37 0.36 0.40 0.44 0.44 0.48 0.51 0.55 0.58 0.64 0.68 0.65 0.58 0.61 0.67 0.80 0.82 0.79 0.90 0.94 0.88 0.92 0.98 1.11 1.17 1.10 0.94
0.08 0.07 0.07 0.08 0.08 0.08 0.12 0.15 0.12 0.10 0.11 0.13 0.19 0.21 0.21 0.24 0.31 0.40 0.46 0.44 0.42 0.47 0.49 0.48 0.48 0.53 0.55 0.60 0.51 0.62 0.73 0.78 0.80 0.81 0.87 1.01 0.93 0.90 0.88 0.97 1.12 1.11 0.98
0.05 0.04 0.04 0.05 0.06 0.06 0.07 0.10 0.08 0.05 0.05 0.06 0.08 0.09 0.13 0.19 0.28 0.35 0.34 0.35 0.37 0.41 0.42 0.45 0.44 0.46 0.53 0.64 0.65 0.71 0.73 0.77 0.84 0.93 0.98 0.95 1.03 0.87 0.83 0.84 0.86 0.95 0.95
0.04 0.03 0.03 0.05 0.05 0.04 0.04 0.06 0.06 0.04 0.04 0.04 0.05 0.05 0.06 0.09 0.14 0.21 0.24 0.27 0.31 0.33 0.33 0.33 0.34 0.38 0.50 0.58 0.60 0.62 0.67 0.75 0.76 0.82 0.82 0.79 0.87 0.73 0.64 0.60 0.67 0.75 0.80
0.02 0.03 0.04 0.04 0.04 0.03 0.03 0.03 0.05 0.06 0.05 0.03 0.03 0.03 0.03 0.04 0.07 0.13 0.18 0.22 0.28 0.30 0.29 0.27 0.29 0.33 0.38 0.45 0.49 0.49 0.49 0.52 0.56 0.54 0.63 0.64 0.62 0.58 0.52 0.56 0.61 0.63 0.66
0.02 0.04 0.05 0.05 0.04 0.03 0.04 0.04 0.05 0.06 0.05 0.04 0.03 0.03 0.03 0.04 0.05 0.07 0.14 0.22 0.25 0.24 0.24 0.27 0.29 0.32 0.35 0.36 0.37 0.41 0.41 0.41 0.46 0.45 0.48 0.48 0.48 0.49 0.50 0.53 0.58 0.63 0.68
0.02 0.03 0.04 0.05 0.05 0.04 0.03 0.04 0.04 0.04 0.05 0.04 0.03 0.03 0.03 0.03 0.03 0.03 0.07 0.14 0.17 0.16 0.19 0.24 0.29 0.33 0.36 0.33 0.30 0.30 0.37 0.43 0.48 0.55 0.50 0.47 0.47 0.50 0.56 0.59 0.58 0.62 0.67
0.02 0.02 0.03 0.04 0.06 0.06 0.04 0.04 0.05 0.04 0.05 0.05 0.03 0.03 0.03 0.04 0.04 0.04 0.05 0.07 0.08 0.10 0.10 0.11 0.16 0.15 0.15 0.16 0.16 0.19 0.24 0.32 0.38 0.54 0.61 0.63 0.68 0.71 0.70 0.69 0.61 0.56 0.57

GEFSMW_prec_meanprecacc_180.txt.gz
Total_Precipitation_Accumulation
0.42 0.44 0.45 0.43 0.36 0.33 0.38 0.44 0.50 0.60 0.73 0.94 1.23 1.64 1.85 1.99 2.00 2.02 1.91 1.70 1.49 1.50 1.67 1.64 1.62 1.63 1.62 1.58 1.53 1.67 1.60 1.35 1.27 1.45 1.42 1.28 1.12 1.07 1.05 1.06 1.19 1.27 1.26
0.36 0.33 0.33 0.33 0.28 0.24 0.24 0.34 0.41 0.51 0.65 0.94 1.24 1.57 1.91 1.99 2.00 2.02 1.98 1.85 1.72 1.73 1.77 1.98 2.08 2.06 2.16 2.13 1.95 2.09 2.09 1.72 1.49 1.73 2.02 1.75 1.55 1.17 1.06 1.12 1.14 1.23 1.37
0.31 0.30 0.29 0.27 0.25 0.21 0.19 0.25 0.31 0.45 0.75 1.09 1.41 1.60 1.88 1.98 2.03 1.99 2.01 2.03 1.98 1.89 1.90 2.02 2.19 2.21 2.28 2.37 2.44 2.39 2.48 2.26 1.88 1.78 2.05 1.93 1.79 1.61 1.22 1.13 1.22 1.36 1.45
0.29 0.28 0.30 0.27 0.21 0.18 0.17 0.20 0.27 0.47 0.81 1.15 1.41 1.65 2.00 2.10 2.06 2.09 2.08 2.09 2.11 2.07 2.15 2.17 2.28 2.31 2.33 2.42 2.52 2.49 2.63 2.67 2.28 2.02 1.81 1.63 1.64 1.75 1.51 1.27 1.24 1.42 1.47
0.27 0.25 0.25 0.24 0.22 0.20 0.20 0.24 0.40 0.59 0.85 1.05 1.31 1.67 1.93 2.05 2.18 2.11 2.09 2.10 2.16 2.18 2.22 2.28 2.45 2.44 2.42 2.39 2.60 2.65 2.74 2.66 2.57 2.43 2.26 2.10 1.86 1.52 1.58 1.60 1.45 1.38 1.31
0.27 0.27 0.26 0.25 0.26 0.27 0.31 0.38 0.53 0.68 0.91 1.09 1.29 1.49 1.75 1.88 2.01 2.11 2.05 2.05 2.12 2.22 2.12 2.03 2.17 2.24 2.27 2.26 2.45 2.62 2.75 2.73 2.76 2.67 2.38 2.32 2.18 1.84 1.77 1.63 1.52 1.53 1.36
0.33 0.37 0.38 0.42 0.48 0.51 0.53 0.61 0.70 0.81 0.93 1.03 1.14 1.23 1.40 1.55 1.58 1.75 1.84 1.97 1.98 2.05 2.09 1.97 1.96 1.99 1.94 1.99 2.11 2.17 2.24 2.39 2.54 2.45 2.24 2.20 2.05 2.03 2.03 1.91 1.67 1.50 1.30
0.49 0.59 0.66 0.75 0.82 0.81 0.80 0.87 0.92 0.90 0.89 0.94 1.01 1.05 1.13 1.22 1.28 1.31 1.34 1.52 1.69 1.73 1.82 1.81 1.76 1.80 1.84 1.85 1.93 1.94 1.95 1.98 2.05 2.05 2.14 2.20 2.07 1.99 1.92 1.94 2.08 1.83 1.60
0.78 0.87 0.96 0.98 0.98 0.95 0.91 0.92 0.95 0.92 0.90 0.90 0.90 0.86 0.86 0.93 1.04 1.06 1.12 1.18 1.27 1.28 1.35 1.45 1.52 1.61 1.66 1.72 1.86 1.93 1.92 1.88 1.85 1.96 2.03 1.98 1.96 1.93 1.83 1.81 1.94 2.01 1.86
1.13 1.25 1.34 1.24 1.15 1.15 1.20 1.09 0.99 0.91 0.87 0.87 0.87 0.80 0.77 0.83 0.87 0.87 0.92 0.91 0.92 0.94 1.00 1.11 1.28 1.50 1.63 1.67 1.74 1.79 1.87 1.91 1.86 1.94 2.04 2.06 2.06 2.08 2.01 1.88 1.86 1.80 1.83
1.53 1.63 1.63 1.53 1.32 1.19 1.18 1.12 1.00 0.87 0.76 0.75 0.80 0.80 0.75 0.77 0.82 0.81 0.76 0.69 0.72 0.79 0.91 0.95 1.09 1.25 1.43 1.61 1.76 1.78 1.78 1.81 1.80 1.74 1.83 1.95 2.05 2.17 2.19 2.18 2.06 1.91 1.86
1.40 1.45 1.40 1.38 1.27 1.17 1.08 1.04 0.92 0.77 0.71 0.74 0.77 0.78 0.70 0.65 0.69 0.71 0.73 0.63 0.58 0.62 0.72 0.85 1.05 1.16 1.25 1.30 1.38 1.46 1.51 1.54 1.58 1.57 1.55 1.63 1.74 1.90 2.05 2.14 2.08 2.06 1.96
1.07 1.17 1.22 1.11 1.07 1.00 0.95 1.02 1.03 0.90 0.87 0.89 0.94 0.86 0.73 0.68 0.67 0.65 0.69 0.64 0.60 0.62 0.67 0.80 0.96 1.01 1.06 1.10 1.12 1.23 1.32 1.33 1.31 1.36 1.33 1.35 1.45 1.59 1.73 1.82 1.89 2.00 2.04
0.89 0.92 0.98 0.94 0.95 0.89 0.87 0.97 1.01 1.01 1.08 1.14 1.10 0.93 0.79 0.72 0.66 0.62 0.61 0.62 0.63 0.65 0.70 0.86 0.94 0.95 0.91 1.00 1.03 1.09 1.13 1.10 1.05 1.08 1.10 1.14 1.19 1.27 1.39 1.54 1.75 1.94 2.05
0.68 0.65 0.61 0.62 0.68 0.69 0.66 0.71 0.79 0.89 1.03 1.10 0.99 0.84 0.71 0.60 0.56 0.58 0.55 0.59 0.65 0.67 0.72 0.77 0.88 0.92 0.90 0.93 1.00 0.99 0.94 0.93 0.92 0.88 0.79 0.81 0.88 0.89 0.98 1.03 1.32 1.57 1.80
0.43 0.41 0.37 0.35 0.39 0.38 0.41 0.45 0.54 0.69 0.90 0.98 0.85 0.68 0.60 0.57 0.52 0.51 0.48 0.47 0.50 0.56 0.60 0.65 0.81 0.92 0.82 0.94 0.94 0.86 0.79 0.76 0.80 0.77 0.70 0.68 0.72 0.63 0.61 0.64 0.86 1.16 1.36
0.33 0.32 0.31 0.27 0.27 0.28 0.31 0.39 0.45 0.58 0.68 0.71 0.66 0.53 0.47 0.44 0.42 0.41 0.41 0.42 0.44 0.48 0.54 0.57 0.73 0.83 0.91 0.86 0.71 0.75 0.74 0.75 0.77 0.79 0.81 0.74 0.70 0.77 0.69 0.63 0.70 0.78 0.90
0.28 0.27 0.28 0.28 0.30 0.34 0.37 0.47 0.51 0.51 0.54 0.61 0.62 0.52 0.45 0.41 0.39 0.37 0.37 0.45 0.46 0.45 0.50 0.55 0.59 0.67 0.80 0.74 0.60 0.65 0.64 0.75 0.82 0.85 0.93 0.94 0.88 0.86 0.93 0.89 0.89 0.86 0.79
0.17 0.17 0.18 0.17 0.19 0.22 0.25 0.29 0.30 0.32 0.34 0.39 0.45 0.41 0.34 0.35 0.38 0.36 0.41 0.44 0.45 0.49 0.51 0.55 0.58 0.64 0.69 0.65 0.58 0.62 0.68 0.81 0.83 0.79 0.90 0.94 0.89 0.93 0.99 1.12 1.18 1.10 0.95
0.08 0.07 0.08 0.08 0.08 0.08 0.12 0.16 0.14 0.11 0.13 0.16 0.21 0.23 0.23 0.26 0.31 0.40 0.46 0.44 0.42 0.48 0.49 0.49 0.48 0.53 0.55 0.60 0.52 0.63 0.74 0.79 0.81 0.81 0.87 1.02 0.94 0.91 0.89 0.98 1.12 1.11 0.98
0.06 0.04 0.04 0.06 0.06 0.06 0.07 0.10 0.10 0.07 0.06 0.07 0.10 0.11 0.14 0.20 0.29 0.36 0.35 0.35 0.38 0.41 0.42 0.45 0.45 0.46 0.53 0.64 0.65 0.71 0.73 0.78 0.84 0.93 0.98 0.96 1.04 0.87 0.84 0.85 0.87 0.95 0.95
0.05 0.04 0.04 0.05 0.05 0.05 0.05 0.07 0.08 0.07 0.07 0.06 0.06 0.07 0.08 0.11 0.16 0.23 0.26 0.28 0.32 0.34 0.33 0.34 0.35 0.39 0.50 0.58 0.60 0.63 0.68 0.76 0.77 0.82 0.83 0.79 0.87 0.73 0.65 0.61 0.67 0.75 0.80
0.04 0.04 0.05 0.05 0.04 0.04 0.05 0.05 0.07 0.09 0.09 0.06 0.05 0.05 0.06 0.07 0.10 0.15 0.20 0.23 0.29 0.31 0.29 0.28 0.29 0.33 0.38 0.45 0.49 0.49 0.49 0.52 0.56 0.54 0.63 0.64 0.63 0.58 0.52 0.57 0.61 0.63 0.66
0.04 0.06 0.08 0.07 0.05 0.04 0.06 0.06 0.07 0.08 0.09 0.07 0.06 0.05 0.06 0.06 0.07 0.09 0.15 0.23 0.26 0.24 0.25 0.27 0.29 0.32 0.35 0.36 0.37 0.41 0.41 0.41 0.46 0.45 0.48 0.48 0.48 0.49 0.51 0.54 0.58 0.64 0.68
0.03 0.05 0.07 0.08 0.07 0.05 0.05 0.06 0.06 0.07 0.08 0.07 0.05 0.06 0.05 0.06 0.05 0.04 0.08 0.15 0.18 0.17 0.19 0.24 0.29 0.34 0.36 0.33 0.30 0.31 0.37 0.43 0.48 0.55 0.50 0.47 0.48 0.50 0.57 0.59 0.59 0.63 0.67
0.03 0.03 0.04 0.06 0.07 0.07 0.05 0.05 0.06 0.06 0.07 0.08 0.06 0.06 0.06 0.06 0.05 0.05 0.06 0.08 0.09 0.10 0.10 0.12 0.16 0.15 0.15 0.16 0.16 0.19 0.24 0.32 0.39 0.54 0.61 0.64 0.69 0.72 0.71 0.69 0.61 0.56 0.57

GEFSMW_prec_meanprecacc_186.txt.gz
Total_Precipitation_Accumulation
0.45 0.46 0.47 0.45 0.40 0.36 0.39 0.44 0.51 0.61 0.74 0.94 1.24 1.64 1.86 1.99 2.00 2.02 1.91 1.71 1.49 1.50 1.67 1.64 1.62 1.63 1.63 1.60 1.55 1.71 1.64 1.38 1.30 1.48 1.45 1.31 1.15 1.10 1.07 1.09 1.21 1.29 1.27
0.39 0.35 0.35 0.34 0.31 0.26 0.25 0.35 0.42 0.52 0.67 0.95 1.25 1.57 1.92 1.99 2.01 2.02 1.98 1.85 1.72 1.73 1.77 1.98 2.09 2.06 2.17 2.15 1.98 2.13 2.13 1.76 1.53 1.78 2.07 1.79 1.58 1.20 1.08 1.14 1.15 1.25 1.38
0.33 0.31 0.31 0.30 0.27 0.23 0.19 0.27 0.32 0.47 0.76 1.10 1.41 1.60 1.88 1.98 2.03 2.00 2.01 2.03 1.98 1.89 1.90 2.02 2.20 2.22 2.29 2.39 2.47 2.42 2.52 2.31 1.92 1.80 2.09 1.98 1.84 1.64 1.24 1.15 1.24 1.38 1.46
0.30 0.30 0.33 0.30 0.24 0.20 0.18 0.22 0.29 0.50 0.82 1.15 1.41 1.65 2.00 2.10 2.06 2.09 2.08 2.09 2.11 2.07 2.15 2.17 2.28 2.31 2.33 2.43 2.54 2.51 2.65 2.72 2.33 2.04 1.83 1.66 1.67 1.78 1.55 1.30 1.27 1.44 1.48
0.28 0.26 0.27 0.27 0.25 0.24 0.25 0.29 0.42 0.61 0.86 1.06 1.31 1.68 1.94 2.05 2.19 2.12 2.09 2.10 2.17 2.18 2.22 2.29 2.45 2.45 2.43 2.40 2.61 2.66 2.76 2.69 2.61 2.47 2.30 2.14 1.89 1.53 1.62 1.65 1.50 1.42 1.33
0.28 0.28 0.28 0.28 0.29 0.30 0.35 0.45 0.60 0.72 0.92 1.10 1.30 1.49 1.75 1.88 2.02 2.11 2.06 2.05 2.12 2.22 2.12 2.04 2.18 2.24 2.29 2.27 2.45 2.63 2.77 2.75 2.78 2.70 2.42 2.36 2.22 1.86 1.79 1.67 1.57 1.58 1.40
0.33 0.38 0.39 0.44 0.51 0.54 0.57 0.65 0.74 0.84 0.97 1.07 1.16 1.23 1.40 1.55 1.59 1.75 1.84 1.97 1.98 2.05 2.09 1.97 1.96 1.99 1.95 1.99 2.11 2.18 2.26 2.40 2.56 2.48 2.27 2.23 2.07 2.04 2.05 1.95 1.72 1.56 1.34
0.49 0.59 0.66 0.76 0.83 0.83 0.82 0.88 0.93 0.92 0.93 0.99 1.04 1.06 1.14 1.22 1.29 1.31 1.35 1.52 1.69 1.73 1.82 1.82 1.76 1.80 1.84 1.85 1.93 1.95 1.96 1.99 2.07 2.07 2.16 2.21 2.09 2.01 1.94 1.97 2.13 1.89 1.64
0.78 0.87 0.96 0.98 0.98 0.97 0.92 0.93 0.96 0.94 0.92 0.94 0.94 0.88 0.87 0.93 1.04 1.06 1.12 1.18 1.27 1.29 1.35 1.45 1.52 1.61 1.66 1.72 1.87 1.94 1.93 1.89 1.86 1.97 2.04 2.00 1.99 1.96 1.85 1.83 1.98 2.07 1.91
1.13 1.26 1.34 1.25 1.16 1.17 1.20 1.09 0.99 0.93 0.89 0.89 0.89 0.82 0.79 0.84 0.87 0.87 0.93 0.92 0.93 0.95 1.01 1.12 1.28 1.51 1.63 1.67 1.75 1.80 1.88 1.92 1.88 1.96 2.07 2.10 2.08 2.10 2.02 1.90 1.89 1.84 1.87
1.54 1.63 1.64 1.54 1.34 1.20 1.19 1.13 1.00 0.88 0.77 0.76 0.82 0.81 0.76 0.78 0.83 0.82 0.77 0.70 0.73 0.80 0.92 0.96 1.10 1.25 1.44 1.62 1.77 1.78 1.78 1.83 1.82 1.77 1.87 1.98 2.08 2.20 2.21 2.20 2.09 1.93 1.88
1.41 1.46 1.41 1.39 1.28 1.18 1.10 1.05 0.93 0.78 0.71 0.75 0.78 0.80 0.72 0.67 0.71 0.72 0.75 0.64 0.60 0.63 0.73 0.86 1.06 1.17 1.25 1.30 1.39 1.47 1.51 1.55 1.61 1.60 1.58 1.66 1.76 1.92 2.07 2.16 2.10 2.08 1.97
1.08 1.17 1.22 1.12 1.07 1.01 0.95 1.03 1.03 0.91 0.88 0.90 0.96 0.88 0.74 0.69 0.68 0.66 0.71 0.65 0.61 0.63 0.68 0.81 0.96 1.02 1.06 1.10 1.13 1.23 1.32 1.33 1.32 1.37 1.35 1.37 1.46 1.60 1.74 1.83 1.90 2.01 2.05
0.90 0.93 0.99 0.94 0.96 0.90 0.88 0.98 1.02 1.02 1.09 1.15 1.12 0.95 0.81 0.73 0.66 0.63 0.63 0.64 0.65 0.67 0.72 0.87 0.95 0.96 0.91 1.00 1.04 1.09 1.13 1.10 1.05 1.09 1.10 1.15 1.19 1.28 1.40 1.55 1.76 1.95 2.06
0.68 0.65 0.63 0.64 0.70 0.70 0.67 0.73 0.81 0.90 1.04 1.11 1.00 0.86 0.74 0.62 0.57 0.59 0.57 0.61 0.67 0.68 0.73 0.79 0.89 0.92 0.90 0.93 1.00 0.99 0.94 0.93 0.93 0.88 0.79 0.81 0.88 0.90 0.98 1.03 1.32 1.58 1.81
0.44 0.42 0.38 0.37 0.42 0.40 0.42 0.46 0.56 0.72 0.92 0.99 0.86 0.70 0.62 0.59 0.54 0.52 0.49 0.48 0.51 0.57 0.61 0.66 0.81 0.92 0.83 0.94 0.94 0.86 0.79 0.76 0.81 0.78 0.70 0.69 0.72 0.64 0.61 0.65 0.87 1.17 1.38
0.33 0.33 0.32 0.29 0.31 0.30 0.32 0.40 0.47 0.60 0.70 0.72 0.67 0.55 0.49 0.46 0.44 0.42 0.42 0.44 0.46 0.49 0.54 0.58 0.74 0.84 0.92 0.86 0.71 0.75 0.75 0.75 0.78 0.80 0.82 0.75 0.70 0.77 0.69 0.63 0.70 0.79 0.91
0.28 0.28 0.29 0.29 0.32 0.37 0.39 0.48 0.53 0.52 0.55 0.62 0.63 0.53 0.46 0.43 0.41 0.38 0.38 0.46 0.47 0.46 0.51 0.57 0.60 0.68 0.81 0.75 0.60 0.65 0.64 0.75 0.82 0.85 0.94 0.95 0.88 0.86 0.94 0.89 0.89 0.87 0.80
0.17 0.17 0.18 0.18 0.20 0.23 0.27 0.30 0.32 0.34 0.35 0.40 0.46 0.42 0.35 0.37 0.40 0.38 0.41 0.45 0.46 0.50 0.52 0.56 0.59 0.65 0.69 0.65 0.58 0.62 0.68 0.82 0.84 0.79 0.91 0.95 0.89 0.93 1.00 1.12 1.18 1.10 0.95
0.08 0.07 0.08 0.09 0.08 0.08 0.13 0.17 0.15 0.13 0.14 0.17 0.23 0.25 0.24 0.27 0.34 0.42 0.47 0.45 0.43 0.48 0.50 0.49 0.49 0.53 0.55 0.60 0.52 0.64 0.74 0.80 0.81 0.82 0.87 1.02 0.95 0.92 0.90 0.99 1.13 1.12 0.99
0.06 0.05 0.05 0.06 0.06 0.06 0.07 0.11 0.11 0.08 0.08 0.09 0.11 0.13 0.17 0.23 0.33 0.39 0.36 0.36 0.38 0.42 0.43 0.46 0.45 0.46 0.53 0.64 0.65 0.72 0.74 0.78 0.84 0.93 0.98 0.96 1.04 0.88 0.84 0.86 0.87 0.96 0.95
0.05 0.04 0.05 0.06 0.06 0.05 0.05 0.07 0.08 0.08 0.09 0.08 0.08 0.09 0.11 0.14 0.19 0.26 0.29 0.30 0.33 0.35 0.34 0.35 0.35 0.39 0.50 0.58 0.60 0.63 0.68 0.76 0.77 0.82 0.83 0.79 0.88 0.74 0.66 0.62 0.68 0.75 0.80
0.04 0.05 0.06 0.06 0.05 0.05 0.05 0.05 0.07 0.10 0.11 0.08 0.07 0.07 0.08 0.10 0.13 0.19 0.23 0.26 0.30 0.32 0.31 0.29 0.31 0.34 0.39 0.46 0.49 0.50 0.49 0.52 0.56 0.54 0.63 0.65 0.63 0.59 0.52 0.57 0.62 0.63 0.66
0.04 0.06 0.09 0.08 0.07 0.05 0.07 0.07 0.08 0.09 0.11 0.09 0.08 0.08 0.09 0.09 0.10 0.13 0.19 0.27 0.28 0.25 0.26 0.28 0.31 0.35 0.37 0.37 0.38 0.41 0.42 0.41 0.46 0.45 0.48 0.48 0.48 0.49 0.51 0.54 0.58 0.64 0.68
0.04 0.06 0.08 0.10 0.08 0.07 0.06 0.07 0.07 0.08 0.09 0.08 0.07 0.08 0.08 0.09 0.08 0.08 0.11 0.18 0.20 0.19 0.21 0.25 0.30 0.35 0.38 0.34 0.30 0.31 0.37 0.43 0.49 0.55 0.50 0.47 0.48 0.50 0.57 0.60 0.59 0.63 0.67
0.04 0.04 0.05 0.07 0.09 0.08 0.07 0.07 0.08 0.08 0.08 0.09 0.08 0.08 0.08 0.09 0.08 0.07 0.08 0.10 0.11 0.12 0.11 0.13 0.17 0.17 0.16 0.17 0.17 0.19 0.25 0.32 0.39 0.54 0.61 0.64 0.69 0.72 0.71 0.69 0.61 0.56 0.57

GEFSMW_prec_meanprecacc_192.txt.gz
Total_Precipitation_Accumulation
0.46 0.46 0.48 0.48 0.45 0.41 0.41 0.47 0.53 0.64 0.76 0.96 1.25 1.65 1.86 1.99 2.00 2.02 1.92 1.71 1.49 1.51 1.67 1.65 1.63 1.64 1.64 1.61 1.56 1.71 1.65 1.39 1.31 1.49 1.46 1.32 1.16 1.11 1.09 1.10 1.22 1.31 1.29
0.40 0.36 0.36 0.36 0.34 0.32 0.29 0.39 0.45 0.56 0.71 0.98 1.27 1.58 1.92 1.99 2.01 2.02 1.98 1.85 1.73 1.73 1.77 1.98 2.09 2.07 2.18 2.16 1.98 2.13 2.14 1.78 1.54 1.79 2.08 1.80 1.59 1.21 1.09 1.15 1.17 1.26 1.40
0.35 0.33 0.32 0.31 0.28 0.25 0.22 0.30 0.36 0.51 0.79 1.13 1.44 1.62 1.89 1.99 2.04 2.00 2.02 2.03 1.98 1.89 1.91 2.02 2.20 2.22 2.29 2.40 2.47 2.42 2.52 2.33 1.94 1.81 2.09 1.99 1.84 1.64 1.26 1.18 1.27 1.39 1.47
0.32 0.32 0.34 0.31 0.25 0.21 0.20 0.25 0.33 0.53 0.87 1.20 1.45 1.67 2.02 2.11 2.06 2.09 2.09 2.09 2.11 2.08 2.15 2.18 2.29 2.32 2.34 2.44 2.54 2.52 2.66 2.73 2.34 2.04 1.84 1.67 1.67 1.79 1.56 1.32 1.29 1.45 1.49
0.28 0.27 0.27 0.27 0.26 0.25 0.26 0.31 0.44 0.65 0.92 1.14 1.39 1.72 1.95 2.06 2.19 2.12 2.09 2.10 2.17 2.18 2.22 2.29 2.45 2.45 2.43 2.41 2.62 2.67 2.76 2.69 2.61 2.47 2.31 2.14 1.89 1.54 1.62 1.66 1.52 1.43 1.34
0.29 0.28 0.29 0.29 0.30 0.31 0.37 0.47 0.62 0.75 0.97 1.16 1.38 1.55 1.77 1.89 2.02 2.11 2.06 2.05 2.12 2.22 2.12 2.04 2.18 2.25 2.29 2.28 2.46 2.64 2.77 2.75 2.78 2.71 2.42 2.37 2.23 1.87 1.80 1.68 1.58 1.59 1.41
0.35 0.39 0.41 0.46 0.53 0.56 0.59 0.67 0.77 0.87 0.99 1.11 1.21 1.27 1.42 1.56 1.59 1.76 1.85 1.97 1.98 2.05 2.09 1.97 1.96 1.99 1.95 1.99 2.12 2.19 2.26 2.40 2.57 2.48 2.28 2.24 2.08 2.04 2.05 1.95 1.73 1.57 1.35
0.52 0.63 0.71 0.78 0.85 0.85 0.85 0.91 0.96 0.94 0.95 1.01 1.07 1.09 1.16 1.23 1.29 1.32 1.35 1.53 1.69 1.73 1.82 1.82 1.76 1.80 1.84 1.86 1.94 1.96 1.97 2.00 2.08 2.08 2.17 2.23 2.10 2.01 1.95 1.98 2.14 1.90 1.65
0.79 0.89 1.00 1.01 1.00 0.99 0.95 0.96 0.97 0.95 0.94 0.96 0.95 0.90 0.88 0.94 1.05 1.06 1.13 1.18 1.27 1.29 1.36 1.45 1.52 1.62 1.67 1.73 1.87 1.94 1.94 1.91 1.89 1.98 2.06 2.02 2.00 1.97 1.86 1.84 1.99 2.08 1.92
1.15 1.27 1.35 1.27 1.18 1.18 1.22 1.11 1.00 0.93 0.89 0.90 0.91 0.83 0.79 0.85 0.89 0.88 0.94 0.92 0.94 0.95 1.01 1.12 1.28 1.51 1.64 1.68 1.75 1.80 1.88 1.92 1.89 1.98 2.09 2.11 2.10 2.12 2.04 1.91 1.90 1.86 1.89
1.55 1.64 1.65 1.55 1.35 1.22 1.21 1.14 1.01 0.89 0.78 0.76 0.83 0.82 0.77 0.80 0.84 0.83 0.78 0.71 0.74 0.81 0.92 0.96 1.10 1.26 1.44 1.63 1.78 1.79 1.79 1.83 1.82 1.77 1.88 2.00 2.09 2.21 2.23 2.21 2.09 1.94 1.89
1.44 1.48 1.43 1.41 1.30 1.20 1.10 1.06 0.94 0.79 0.72 0.76 0.79 0.80 0.72 0.68 0.72 0.73 0.76 0.66 0.61 0.64 0.73 0.86 1.06 1.17 1.25 1.30 1.39 1.48 1.52 1.56 1.61 1.61 1.58 1.66 1.77 1.93 2.08 2.16 2.10 2.08 1.98
1.12 1.21 1.25 1.14 1.09 1.02 0.96 1.04 1.05 0.92 0.89 0.91 0.97 0.89 0.74 0.70 0.70 0.69 0.74 0.68 0.63 0.65 0.68 0.81 0.96 1.02 1.07 1.11 1.13 1.23 1.33 1.34 1.32 1.38 1.36 1.38 1.46 1.61 1.75 1.84 1.91 2.01 2.05
0.94 0.97 1.02 0.97 0.98 0.93 0.89 0.99 1.03 1.03 1.10 1.16 1.13 0.96 0.82 0.74 0.69 0.66 0.67 0.67 0.67 0.68 0.72 0.87 0.95 0.96 0.92 1.01 1.04 1.10 1.14 1.11 1.06 1.09 1.10 1.15 1.20 1.28 1.41 1.56 1.77 1.96 2.06
0.72 0.68 0.66 0.67 0.72 0.73 0.69 0.74 0.82 0.91 1.05 1.12 1.01 0.88 0.75 0.65 0.60 0.63 0.60 0.64 0.70 0.70 0.74 0.80 0.89 0.93 0.90 0.94 1.00 1.00 0.94 0.94 0.93 0.89 0.80 0.81 0.89 0.91 1.00 1.04 1.33 1.59 1.81
0.47 0.45 0.41 0.42 0.47 0.43 0.44 0.48 0.57 0.73 0.92 1.01 0.89 0.73 0.65 0.63 0.57 0.55 0.52 0.52 0.55 0.59 0.63 0.67 0.82 0.93 0.83 0.94 0.94 0.87 0.79 0.77 0.81 0.78 0.71 0.69 0.72 0.64 0.61 0.66 0.88 1.18 1.39
0.35 0.36 0.36 0.35 0.38 0.35 0.36 0.44 0.50 0.62 0.72 0.75 0.70 0.59 0.53 0.49 0.46 0.44 0.45 0.47 0.48 0.51 0.56 0.60 0.75 0.84 0.92 0.86 0.72 0.75 0.75 0.76 0.78 0.80 0.83 0.75 0.70 0.77 0.69 0.63 0.70 0.79 0.91
0.30 0.30 0.31 0.34 0.38 0.42 0.43 0.51 0.56 0.56 0.60 0.66 0.66 0.56 0.48 0.44 0.42 0.39 0.41 0.49 0.49 0.48 0.53 0.58 0.61 0.68 0.82 0.76 0.61 0.65 0.64 0.75 0.83 0.86 0.94 0.95 0.88 0.87 0.94 0.89 0.89 0.87 0.80
0.18 0.18 0.19 0.20 0.24 0.29 0.33 0.35 0.35 0.37 0.39 0.44 0.49 0.45 0.37 0.38 0.42 0.40 0.44 0.48 0.48 0.52 0.54 0.57 0.59 0.65 0.69 0.67 0.60 0.63 0.69 0.82 0.84 0.79 0.91 0.95 0.90 0.94 1.00 1.12 1.18 1.10 0.95
0.09 0.08 0.09 0.09 0.09 0.12 0.19 0.21 0.19 0.17 0.17 0.20 0.26 0.28 0.26 0.30 0.36 0.45 0.50 0.48 0.45 0.50 0.52 0.51 0.49 0.54 0.56 0.61 0.52 0.64 0.75 0.80 0.81 0.82 0.88 1.02 0.95 0.93 0.90 0.99 1.13 1.12 0.99
0.06 0.06 0.06 0.07 0.07 0.08 0.11 0.13 0.12 0.10 0.10 0.11 0.13 0.16 0.20 0.25 0.34 0.41 0.39 0.38 0.40 0.43 0.44 0.47 0.46 0.47 0.54 0.65 0.66 0.72 0.74 0.79 0.85 0.94 0.99 0.96 1.05 0.89 0.85 0.86 0.87 0.96 0.95
0.06 0.05 0.06 0.06 0.07 0.07 0.07 0.08 0.09 0.09 0.10 0.09 0.09 0.11 0.13 0.16 0.20 0.28 0.32 0.33 0.35 0.35 0.35 0.36 0.36 0.40 0.51 0.59 0.61 0.63 0.69 0.77 0.77 0.83 0.83 0.80 0.89 0.74 0.66 0.62 0.68 0.75 0.80
0.05 0.05 0.07 0.07 0.07 0.07 0.06 0.07 0.08 0.11 0.12 0.10 0.08 0.09 0.11 0.12 0.15 0.21 0.26 0.30 0.33 0.34 0.32 0.30 0.31 0.35 0.39 0.47 0.50 0.50 0.50 0.53 0.56 0.55 0.64 0.65 0.64 0.59 0.52 0.57 0.62 0.63 0.67
0.05 0.06 0.10 0.10 0.09 0.08 0.09 0.10 0.10 0.11 0.13 0.11 0.10 0.10 0.12 0.12 0.12 0.16 0.23 0.31 0.31 0.27 0.27 0.29 0.31 0.35 0.38 0.38 0.39 0.42 0.42 0.41 0.47 0.46 0.48 0.49 0.48 0.50 0.51 0.54 0.58 0.64 0.68
0.04 0.06 0.09 0.11 0.11 0.10 0.10 0.11 0.11 0.11 0.11 0.10 0.10 0.10 0.11 0.12 0.11 0.11 0.14 0.20 0.23 0.21 0.23 0.27 0.31 0.36 0.39 0.35 0.31 0.31 0.38 0.44 0.49 0.55 0.51 0.47 0.48 0.50 0.57 0.60 0.59 0.63 0.67
0.05 0.05 0.06 0.08 0.10 0.10 0.10 0.10 0.12 0.12 0.12 0.12 0.12 0.12 0.11 0.12 0.10 0.10 0.11 0.13 0.13 0.14 0.14 0.15 0.19 0.18 0.18 0.17 0.17 0.20 0.25 0.32 0.39 0.54 0.62 0.64 0.69 0.72 0.71 0.69 0.61 0.56 0.57

GEFSMW_prec_meanprecacc_198.txt.gz
Total_Precipitation_Accumulation
0.46 0.47 0.48 0.49 0.49 0.45 0.45 0.50 0.57 0.68 0.79 1.00 1.29 1.68 1.88 2.00 2.01 2.02 1.92 1.71 1.49 1.51 1.68 1.65 1.63 1.65 1.64 1.61 1.56 1.71 1.65 1.39 1.32 1.50 1.47 1.33 1.18 1.13 1.09 1.11 1.23 1.31 1.30
0.41 0.37 0.36 0.37 0.36 0.34 0.33 0.43 0.49 0.59 0.75 1.02 1.30 1.61 1.94 2.00 2.01 2.02 1.98 1.86 1.73 1.73 1.77 1.98 2.09 2.07 2.18 2.16 1.99 2.13 2.14 1.78 1.54 1.79 2.08 1.81 1.60 1.22 1.10 1.16 1.18 1.27 1.40
0.36 0.34 0.33 0.31 0.29 0.26 0.24 0.33 0.39 0.54 0.84 1.18 1.47 1.64 1.90 2.00 2.04 2.00 2.02 2.03 1.98 1.89 1.91 2.03 2.20 2.22 2.30 2.40 2.47 2.42 2.52 2.34 1.94 1.81 2.09 1.99 1.85 1.65 1.26 1.18 1.27 1.40 1.47
0.34 0.32 0.35 0.32 0.25 0.21 0.20 0.27 0.35 0.56 0.91 1.24 1.49 1.72 2.06 2.13 2.07 2.09 2.09 2.09 2.11 2.08 2.15 2.18 2.29 2.32 2.34 2.44 2.54 2.52 2.66 2.73 2.34 2.04 1.84 1.67 1.67 1.79 1.56 1.33 1.29 1.45 1.49
0.30 0.28 0.28 0.28 0.27 0.25 0.27 0.32 0.45 0.67 0.95 1.17 1.43 1.77 2.00 2.09 2.20 2.12 2.10 2.10 2.17 2.19 2.22 2.29 2.46 2.46 2.44 2.41 2.63 2.68 2.77 2.70 2.62 2.47 2.31 2.14 1.89 1.54 1.62 1.66 1.52 1.43 1.34
0.30 0.29 0.30 0.29 0.31 0.32 0.38 0.48 0.63 0.76 0.98 1.19 1.41 1.58 1.80 1.91 2.03 2.12 2.06 2.06 2.13 2.23 2.12 2.04 2.18 2.25 2.29 2.28 2.47 2.65 2.78 2.76 2.79 2.71 2.43 2.37 2.23 1.87 1.80 1.68 1.58 1.59 1.41
0.36 0.40 0.41 0.46 0.53 0.57 0.60 0.68 0.78 0.89 1.01 1.13 1.23 1.29 1.44 1.58 1.60 1.76 1.85 1.98 1.99 2.05 2.09 1.97 1.96 1.99 1.95 1.99 2.12 2.20 2.27 2.41 2.58 2.49 2.28 2.24 2.08 2.05 2.06 1.95 1.73 1.57 1.36
0.53 0.64 0.71 0.79 0.86 0.86 0.86 0.92 0.97 0.96 0.97 1.03 1.09 1.11 1.17 1.25 1.30 1.33 1.36 1.54 1.69 1.74 1.82 1.82 1.76 1.80 1.85 1.86 1.94 1.96 1.98 2.01 2.09 2.09 2.18 2.24 2.10 2.02 1.95 1.98 2.14 1.90 1.66
0.81 0.90 1.00 1.01 1.01 1.00 0.96 0.97 0.99 0.96 0.95 0.98 0.98 0.91 0.89 0.96 1.07 1.08 1.14 1.21 1.29 1.30 1.36 1.45 1.53 1.62 1.67 1.73 1.87 1.94 1.94 1.91 1.89 1.99 2.06 2.02 2.02 1.99 1.88 1.85 2.00 2.09 1.94
1.16 1.27 1.35 1.27 1.19 1.20 1.24 1.13 1.03 0.95 0.91 0.91 0.92 0.84 0.81 0.87 0.91 0.90 0.95 0.94 0.96 0.98 1.03 1.13 1.29 1.51 1.64 1.68 1.75 1.80 1.88 1.93 1.90 1.99 2.09 2.12 2.13 2.14 2.06 1.93 1.91 1.87 1.90
1.56 1.65 1.65 1.55 1.36 1.25 1.24 1.16 1.04 0.90 0.79 0.77 0.83 0.83 0.79 0.82 0.86 0.84 0.79 0.73 0.76 0.83 0.95 0.99 1.12 1.26 1.45 1.63 1.78 1.79 1.79 1.84 1.83 1.78 1.89 2.02 2.11 2.22 2.23 2.22 2.10 1.95 1.90
1.45 1.49 1.44 1.42 1.31 1.22 1.13 1.09 0.96 0.80 0.73 0.77 0.79 0.81 0.73 0.69 0.73 0.74 0.77 0.67 0.63 0.66 0.75 0.89 1.08 1.19 1.27 1.31 1.40 1.48 1.53 1.57 1.63 1.62 1.60 1.67 1.78 1.94 2.09 2.17 2.11 2.09 1.99
1.13 1.22 1.27 1.15 1.10 1.04 0.98 1.08 1.08 0.94 0.90 0.92 0.97 0.90 0.75 0.71 0.71 0.69 0.74 0.69 0.64 0.66 0.69 0.82 0.98 1.03 1.08 1.12 1.14 1.24 1.33 1.35 1.34 1.40 1.37 1.38 1.47 1.62 1.77 1.86 1.93 2.04 2.08
0.95 0.98 1.04 0.99 1.00 0.95 0.91 1.02 1.07 1.06 1.11 1.18 1.14 0.97 0.82 0.75 0.70 0.67 0.69 0.68 0.68 0.70 0.73 0.88 0.96 0.97 0.93 1.02 1.06 1.11 1.15 1.12 1.07 1.10 1.11 1.15 1.20 1.29 1.43 1.57 1.79 1.97 2.08
0.74 0.70 0.68 0.69 0.75 0.74 0.71 0.77 0.85 0.94 1.06 1.13 1.03 0.90 0.77 0.67 0.62 0.65 0.62 0.66 0.73 0.72 0.76 0.80 0.90 0.94 0.91 0.95 1.01 1.01 0.95 0.94 0.94 0.90 0.81 0.82 0.90 0.93 1.02 1.06 1.35 1.61 1.83
0.49 0.47 0.43 0.44 0.49 0.44 0.46 0.50 0.59 0.75 0.94 1.03 0.92 0.75 0.67 0.65 0.59 0.57 0.54 0.54 0.57 0.61 0.64 0.68 0.84 0.94 0.84 0.95 0.95 0.87 0.80 0.77 0.82 0.79 0.72 0.70 0.74 0.66 0.63 0.67 0.90 1.19 1.39
0.37 0.38 0.39 0.37 0.40 0.37 0.38 0.45 0.52 0.65 0.74 0.78 0.72 0.60 0.54 0.50 0.47 0.46 0.47 0.48 0.50 0.53 0.58 0.61 0.76 0.85 0.93 0.87 0.73 0.76 0.75 0.76 0.78 0.81 0.83 0.75 0.71 0.79 0.70 0.64 0.71 0.80 0.92
0.31 0.33 0.35 0.36 0.41 0.44 0.45 0.54 0.60 0.59 0.62 0.68 0.67 0.57 0.49 0.45 0.43 0.41 0.42 0.51 0.51 0.50 0.55 0.58 0.61 0.69 0.82 0.77 0.62 0.66 0.65 0.76 0.83 0.86 0.94 0.95 0.89 0.87 0.95 0.89 0.90 0.87 0.80
0.19 0.19 0.21 0.22 0.27 0.32 0.36 0.38 0.39 0.41 0.42 0.45 0.51 0.46 0.38 0.40 0.44 0.42 0.46 0.50 0.50 0.54 0.55 0.58 0.60 0.65 0.70 0.67 0.60 0.63 0.69 0.82 0.84 0.79 0.91 0.95 0.90 0.94 1.00 1.12 1.19 1.11 0.96
0.09 0.09 0.10 0.10 0.11 0.15 0.23 0.26 0.22 0.20 0.20 0.23 0.28 0.31 0.29 0.32 0.38 0.48 0.53 0.50 0.47 0.51 0.53 0.51 0.50 0.54 0.56 0.61 0.53 0.65 0.75 0.80 0.81 0.82 0.88 1.02 0.95 0.93 0.90 0.99 1.13 1.12 0.99
0.07 0.07 0.07 0.08 0.09 0.11 0.15 0.16 0.17 0.14 0.14 0.15 0.17 0.20 0.23 0.28 0.37 0.43 0.41 0.39 0.41 0.44 0.45 0.48 0.47 0.48 0.55 0.65 0.66 0.72 0.74 0.79 0.85 0.94 0.99 0.96 1.05 0.89 0.85 0.86 0.88 0.97 0.96
0.07 0.06 0.06 0.08 0.09 0.09 0.08 0.10 0.10 0.11 0.12 0.11 0.11 0.13 0.15 0.17 0.22 0.29 0.33 0.34 0.36 0.36 0.35 0.36 0.37 0.40 0.51 0.59 0.62 0.64 0.69 0.77 0.77 0.83 0.83 0.80 0.89 0.75 0.67 0.63 0.69 0.76 0.82
0.05 0.05 0.07 0.08 0.08 0.08 0.07 0.08 0.10 0.13 0.14 0.11 0.09 0.10 0.13 0.14 0.16 0.23 0.27 0.31 0.34 0.35 0.32 0.30 0.32 0.35 0.40 0.47 0.51 0.51 0.50 0.53 0.56 0.55 0.64 0.66 0.64 0.60 0.53 0.58 0.63 0.65 0.68
0.05 0.07 0.10 0.10 0.09 0.09 0.10 0.11 0.12 0.13 0.14 0.12 0.11 0.11 0.13 0.14 0.14 0.18 0.25 0.33 0.32 0.28 0.28 0.30 0.32 0.36 0.38 0.38 0.39 0.43 0.43 0.42 0.47 0.46 0.49 0.49 0.49 0.50 0.52 0.55 0.60 0.65 0.70
0.05 0.07 0.09 0.11 0.12 0.12 0.13 0.14 0.13 0.12 0.12 0.12 0.11 0.11 0.12 0.14 0.14 0.14 0.17 0.24 0.27 0.24 0.26 0.29 0.33 0.37 0.40 0.36 0.32 0.32 0.39 0.45 0.49 0.55 0.51 0.47 0.48 0.50 0.57 0.60 0.60 0.63 0.67
0.06 0.06 0.06 0.09 0.11 0.12 0.14 0.14 0.16 0.15 0.15 0.13 0.13 0.13 0.12 0.13 0.12 0.13 0.14 0.17 0.17 0.20 0.19 0.18 0.21 0.20 0.19 0.20 0.19 0.21 0.26 0.33 0.40 0.55 0.62 0.64 0.69 0.72 0.71 0.69 0.61 0.57 0.57

GEFSMW_prec_meanprecacc_204.txt.gz
Total_Precipitation_Accumulation
0.48 0.49 0.50 0.51 0.52 0.53 0.53 0.55 0.60 0.70 0.81 1.01 1.30 1.70 1.91 2.04 2.03 2.04 1.94 1.72 1.51 1.52 1.68 1.66 1.64 1.65 1.65 1.62 1.57 1.71 1.65 1.40 1.32 1.51 1.49 1.35 1.19 1.14 1.11 1.12 1.27 1.39 1.39
0.42 0.38 0.37 0.38 0.37 0.37 0.40 0.52 0.55 0.63 0.77 1.03 1.31 1.63 1.96 2.03 2.03 2.04 1.99 1.87 1.74 1.74 1.78 1.99 2.10 2.07 2.19 2.17 1.99 2.14 2.15 1.79 1.55 1.81 2.11 1.84 1.63 1.23 1.11 1.17 1.21 1.31 1.46
0.37 0.36 0.34 0.32 0.29 0.26 0.26 0.38 0.47 0.60 0.88 1.21 1.49 1.67 1.94 2.02 2.05 2.01 2.02 2.04 1.99 1.89 1.91 2.03 2.21 2.22 2.30 2.41 2.48 2.42 2.53 2.35 1.95 1.81 2.10 2.02 1.88 1.68 1.29 1.20 1.28 1.41 1.50
0.35 0.34 0.36 0.33 0.26 0.22 0.21 0.28 0.37 0.59 0.94 1.28 1.53 1.77 2.11 2.16 2.09 2.10 2.09 2.10 2.12 2.08 2.16 2.18 2.30 2.32 2.34 2.45 2.55 2.52 2.66 2.74 2.35 2.05 1.84 1.67 1.68 1.81 1.59 1.35 1.30 1.46 1.50
0.30 0.28 0.29 0.29 0.27 0.26 0.27 0.33 0.46 0.68 0.96 1.18 1.45 1.81 2.04 2.12 2.23 2.14 2.11 2.11 2.17 2.19 2.23 2.30 2.46 2.46 2.44 2.42 2.63 2.68 2.78 2.71 2.62 2.47 2.31 2.14 1.90 1.55 1.64 1.68 1.53 1.44 1.35
0.31 0.30 0.30 0.29 0.31 0.33 0.38 0.48 0.63 0.77 1.00 1.20 1.42 1.60 1.83 1.95 2.07 2.14 2.07 2.07 2.13 2.23 2.12 2.04 2.18 2.25 2.29 2.28 2.47 2.65 2.79 2.77 2.79 2.71 2.43 2.37 2.24 1.87 1.81 1.69 1.60 1.61 1.42
0.37 0.40 0.42 0.47 0.53 0.57 0.60 0.69 0.79 0.90 1.02 1.14 1.24 1.31 1.46 1.62 1.65 1.79 1.87 1.99 1.99 2.06 2.10 1.98 1.97 2.00 1.95 1.99 2.12 2.20 2.28 2.42 2.58 2.49 2.28 2.24 2.08 2.05 2.06 1.97 1.74 1.58 1.36
0.54 0.65 0.72 0.79 0.86 0.87 0.86 0.93 0.98 0.97 0.98 1.04 1.10 1.14 1.19 1.27 1.33 1.36 1.39 1.55 1.70 1.74 1.83 1.83 1.77 1.81 1.85 1.86 1.95 1.96 1.98 2.02 2.10 2.09 2.18 2.24 2.10 2.02 1.96 2.00 2.15 1.92 1.68
0.82 0.91 1.01 1.02 1.01 1.00 0.96 0.97 0.99 0.97 0.96 0.99 1.00 0.93 0.91 0.97 1.09 1.12 1.18 1.23 1.30 1.31 1.37 1.46 1.54 1.63 1.68 1.73 1.88 1.95 1.94 1.91 1.90 1.99 2.06 2.03 2.02 2.00 1.89 1.87 2.02 2.12 1.96
1.17 1.28 1.36 1.28 1.20 1.21 1.25 1.14 1.03 0.96 0.91 0.92 0.94 0.86 0.82 0.88 0.93 0.92 0.97 0.96 0.98 0.99 1.04 1.14 1.31 1.53 1.65 1.69 1.76 1.81 1.89 1.93 1.90 1.99 2.10 2.13 2.13 2.14 2.07 1.94 1.93 1.89 1.92
1.56 1.65 1.66 1.56 1.37 1.25 1.24 1.17 1.04 0.91 0.80 0.78 0.84 0.85 0.80 0.82 0.87 0.85 0.80 0.75 0.79 0.85 0.96 1.00 1.14 1.30 1.47 1.66 1.80 1.81 1.81 1.85 1.83 1.79 1.89 2.02 2.11 2.23 2.24 2.23 2.11 1.97 1.92
1.46 1.49 1.44 1.43 1.31 1.22 1.13 1.10 0.97 0.81 0.74 0.78 0.80 0.82 0.74 0.70 0.74 0.75 0.78 0.69 0.66 0.68 0.76 0.90 1.09 1.21 1.29 1.33 1.42 1.50 1.54 1.58 1.64 1.63 1.60 1.68 1.78 1.94 2.09 2.18 2.13 2.11 2.01
1.14 1.23 1.27 1.15 1.11 1.04 0.99 1.08 1.09 0.95 0.91 0.93 0.98 0.90 0.76 0.71 0.72 0.71 0.76 0.70 0.66 0.67 0.70 0.83 0.98 1.04 1.09 1.13 1.15 1.25 1.34 1.36 1.35 1.40 1.37 1.39 1.47 1.62 1.77 1.86 1.94 2.05 2.09
0.95 0.99 1.04 0.99 1.01 0.95 0.92 1.04 1.09 1.08 1.13 1.18 1.14 0.97 0.83 0.76 0.71 0.68 0.69 0.68 0.68 0.70 0.74 0.88 0.96 0.98 0.94 1.03 1.06 1.12 1.16 1.12 1.07 1.11 1.11 1.16 1.21 1.29 1.43 1.58 1.80 1.98 2.09
0.75 0.71 0.69 0.70 0.76 0.75 0.72 0.78 0.88 0.97 1.08 1.14 1.04 0.90 0.78 0.68 0.63 0.66 0.63 0.67 0.74 0.73 0.76 0.81 0.90 0.94 0.91 0.96 1.02 1.02 0.96 0.96 0.95 0.90 0.81 0.83 0.90 0.93 1.02 1.07 1.36 1.61 1.84
0.50 0.48 0.45 0.45 0.50 0.46 0.47 0.51 0.62 0.77 0.96 1.04 0.93 0.76 0.69 0.66 0.60 0.58 0.55 0.55 0.58 0.61 0.64 0.69 0.84 0.94 0.84 0.95 0.96 0.88 0.81 0.78 0.83 0.80 0.72 0.70 0.74 0.66 0.63 0.68 0.90 1.20 1.40
0.40 0.40 0.40 0.39 0.42 0.38 0.39 0.47 0.54 0.68 0.77 0.80 0.74 0.62 0.55 0.52 0.48 0.47 0.48 0.49 0.51 0.54 0.59 0.62 0.76 0.85 0.93 0.87 0.73 0.77 0.76 0.77 0.80 0.81 0.84 0.76 0.71 0.79 0.71 0.65 0.72 0.80 0.92
0.34 0.36 0.38 0.38 0.42 0.45 0.47 0.56 0.62 0.63 0.65 0.70 0.68 0.58 0.50 0.46 0.44 0.42 0.43 0.51 0.51 0.51 0.55 0.59 0.61 0.69 0.83 0.77 0.62 0.67 0.66 0.77 0.84 0.87 0.95 0.96 0.89 0.88 0.95 0.89 0.90 0.87 0.80
0.21 0.22 0.23 0.24 0.29 0.34 0.38 0.40 0.42 0.44 0.45 0.48 0.53 0.47 0.40 0.41 0.45 0.43 0.47 0.51 0.51 0.54 0.55 0.58 0.60 0.66 0.70 0.68 0.61 0.64 0.69 0.83 0.84 0.80 0.91 0.96 0.90 0.95 1.01 1.12 1.19 1.11 0.96
0.11 0.11 0.11 0.12 0.13 0.17 0.26 0.29 0.28 0.24 0.23 0.25 0.30 0.32 0.31 0.33 0.39 0.49 0.54 0.51 0.47 0.52 0.54 0.52 0.51 0.55 0.56 0.62 0.54 0.65 0.76 0.81 0.81 0.82 0.88 1.02 0.95 0.93 0.90 0.99 1.14 1.13 1.00
0.09 0.09 0.09 0.10 0.11 0.14 0.17 0.20 0.23 0.18 0.17 0.17 0.20 0.22 0.25 0.29 0.37 0.44 0.42 0.40 0.41 0.44 0.45 0.49 0.48 0.49 0.55 0.66 0.67 0.73 0.75 0.79 0.86 0.95 0.99 0.97 1.06 0.89 0.85 0.86 0.88 0.97 0.96
0.08 0.08 0.08 0.09 0.11 0.11 0.11 0.13 0.13 0.15 0.16 0.14 0.15 0.17 0.17 0.19 0.23 0.29 0.33 0.35 0.36 0.37 0.36 0.37 0.37 0.41 0.52 0.60 0.62 0.65 0.70 0.77 0.78 0.83 0.83 0.80 0.90 0.75 0.67 0.63 0.69 0.77 0.82
0.06 0.06 0.08 0.09 0.11 0.10 0.09 0.09 0.11 0.14 0.17 0.15 0.13 0.14 0.16 0.16 0.18 0.24 0.28 0.32 0.35 0.35 0.33 0.31 0.33 0.36 0.41 0.48 0.51 0.51 0.51 0.54 0.57 0.55 0.64 0.66 0.65 0.60 0.53 0.59 0.63 0.65 0.68
0.05 0.07 0.11 0.11 0.11 0.10 0.11 0.12 0.12 0.13 0.15 0.14 0.13 0.14 0.15 0.17 0.16 0.20 0.27 0.34 0.33 0.29 0.28 0.30 0.33 0.38 0.39 0.38 0.39 0.43 0.43 0.42 0.48 0.47 0.49 0.49 0.49 0.50 0.52 0.55 0.60 0.65 0.70
0.05 0.07 0.10 0.12 0.12 0.13 0.13 0.14 0.13 0.13 0.13 0.12 0.12 0.13 0.14 0.16 0.16 0.15 0.18 0.26 0.28 0.26 0.28 0.31 0.34 0.38 0.40 0.36 0.32 0.32 0.39 0.45 0.50 0.56 0.51 0.47 0.48 0.51 0.57 0.60 0.60 0.64 0.68
0.06 0.06 0.07 0.10 0.11 0.13 0.15 0.15 0.17 0.17 0.16 0.14 0.14 0.14 0.14 0.15 0.14 0.14 0.15 0.19 0.19 0.22 0.22 0.20 0.23 0.21 0.20 0.20 0.20 0.22 0.27 0.34 0.41 0.55 0.62 0.64 0.69 0.72 0.72 0.70 0.62 0.58 0.58

GEFSMW_prec_meanprecacc_210.txt.gz
Total_Precipitation_Accumulation
0.51 0.51 0.52 0.54 0.55 0.56 0.57 0.57 0.63 0.71 0.83 1.03 1.32 1.71 1.93 2.05 2.05 2.06 1.95 1.73 1.51 1.52 1.70 1.67 1.64 1.66 1.66 1.63 1.58 1.73 1.67 1.42 1.34 1.55 1.53 1.37 1.20 1.15 1.12 1.17 1.39 1.53 1.47
0.45 0.41 0.39 0.39 0.40 0.40 0.43 0.55 0.57 0.66 0.79 1.06 1.33 1.64 1.98 2.05 2.05 2.05 2.02 1.89 1.75 1.75 1.79 2.00 2.11 2.08 2.21 2.18 2.01 2.16 2.19 1.82 1.57 1.85 2.18 1.90 1.67 1.26 1.15 1.25 1.32 1.44 1.55
0.41 0.38 0.36 0.33 0.32 0.28 0.27 0.40 0.51 0.65 0.92 1.24 1.52 1.69 1.95 2.03 2.07 2.03 2.04 2.06 2.00 1.91 1.92 2.04 2.21 2.23 2.31 2.43 2.51 2.46 2.57 2.38 1.97 1.83 2.14 2.09 1.95 1.72 1.32 1.26 1.37 1.54 1.62
0.37 0.36 0.38 0.34 0.28 0.23 0.21 0.28 0.38 0.61 0.98 1.33 1.56 1.80 2.16 2.21 2.12 2.13 2.12 2.12 2.13 2.09 2.17 2.19 2.30 2.33 2.35 2.46 2.56 2.53 2.68 2.76 2.37 2.06 1.85 1.69 1.72 1.84 1.62 1.40 1.36 1.54 1.59
0.32 0.30 0.30 0.30 0.29 0.28 0.28 0.33 0.47 0.69 0.98 1.22 1.48 1.84 2.09 2.18 2.27 2.16 2.12 2.12 2.18 2.20 2.24 2.31 2.47 2.46 2.45 2.43 2.64 2.70 2.80 2.72 2.64 2.49 2.32 2.16 1.92 1.57 1.67 1.73 1.58 1.47 1.38
0.31 0.32 0.31 0.30 0.32 0.34 0.39 0.50 0.66 0.79 1.01 1.22 1.45 1.64 1.87 2.00 2.12 2.18 2.10 2.08 2.14 2.24 2.13 2.05 2.19 2.26 2.30 2.29 2.48 2.66 2.80 2.79 2.80 2.72 2.43 2.39 2.26 1.90 1.84 1.72 1.62 1.64 1.44
0.38 0.41 0.42 0.47 0.54 0.58 0.61 0.70 0.80 0.92 1.04 1.16 1.27 1.35 1.50 1.65 1.68 1.83 1.90 2.01 2.01 2.07 2.11 1.99 1.98 2.01 1.96 2.01 2.13 2.20 2.28 2.43 2.59 2.51 2.30 2.26 2.09 2.06 2.08 1.99 1.77 1.61 1.39
0.55 0.66 0.72 0.79 0.87 0.87 0.87 0.94 0.99 0.99 1.01 1.08 1.14 1.17 1.22 1.30 1.37 1.40 1.42 1.57 1.71 1.76 1.85 1.84 1.78 1.82 1.86 1.87 1.97 1.99 1.99 2.02 2.10 2.09 2.19 2.25 2.11 2.03 1.97 2.02 2.18 1.95 1.71
0.82 0.92 1.02 1.03 1.02 1.00 0.96 0.99 1.00 0.98 0.97 1.01 1.03 0.97 0.94 1.00 1.11 1.14 1.20 1.24 1.32 1.32 1.39 1.48 1.55 1.64 1.69 1.75 1.90 1.99 1.98 1.94 1.91 2.00 2.07 2.03 2.02 2.00 1.90 1.88 2.05 2.15 2.00
1.17 1.28 1.37 1.30 1.20 1.21 1.25 1.14 1.04 0.96 0.92 0.93 0.96 0.88 0.84 0.90 0.94 0.93 0.98 0.98 0.99 1.01 1.06 1.16 1.32 1.55 1.67 1.70 1.78 1.84 1.93 1.96 1.92 2.01 2.11 2.13 2.13 2.14 2.08 1.96 1.95 1.91 1.96
1.56 1.66 1.67 1.57 1.38 1.26 1.25 1.18 1.05 0.92 0.81 0.79 0.86 0.87 0.81 0.83 0.88 0.86 0.80 0.76 0.80 0.86 0.97 1.01 1.16 1.31 1.49 1.67 1.81 1.83 1.83 1.87 1.86 1.80 1.90 2.03 2.12 2.23 2.25 2.24 2.13 1.99 1.95
1.46 1.50 1.46 1.44 1.32 1.23 1.14 1.10 0.98 0.81 0.75 0.79 0.81 0.83 0.76 0.70 0.75 0.76 0.80 0.70 0.67 0.69 0.77 0.90 1.10 1.22 1.30 1.34 1.43 1.51 1.55 1.60 1.66 1.65 1.61 1.69 1.79 1.95 2.10 2.20 2.14 2.13 2.03
1.15 1.24 1.29 1.18 1.12 1.05 1.00 1.09 1.10 0.96 0.92 0.94 0.99 0.92 0.78 0.72 0.73 0.72 0.78 0.71 0.66 0.68 0.71 0.84 0.99 1.05 1.10 1.14 1.16 1.26 1.35 1.37 1.36 1.42 1.39 1.40 1.49 1.63 1.78 1.87 1.96 2.07 2.10
0.97 1.00 1.06 1.02 1.03 0.97 0.92 1.05 1.10 1.09 1.14 1.19 1.15 0.99 0.86 0.78 0.73 0.70 0.72 0.70 0.70 0.72 0.75 0.89 0.97 0.98 0.94 1.03 1.07 1.12 1.16 1.13 1.08 1.11 1.12 1.17 1.22 1.31 1.44 1.58 1.80 1.99 2.10
0.78 0.73 0.71 0.72 0.78 0.77 0.72 0.79 0.89 0.98 1.10 1.15 1.05 0.92 0.81 0.71 0.66 0.69 0.66 0.68 0.75 0.74 0.76 0.81 0.91 0.94 0.92 0.96 1.03 1.02 0.97 0.96 0.96 0.91 0.81 0.83 0.92 0.94 1.03 1.07 1.36 1.62 1.85
0.53 0.51 0.47 0.47 0.52 0.47 0.48 0.52 0.63 0.80 0.97 1.06 0.94 0.79 0.71 0.69 0.63 0.60 0.57 0.56 0.59 0.62 0.65 0.69 0.84 0.94 0.84 0.96 0.96 0.88 0.81 0.79 0.84 0.80 0.73 0.71 0.75 0.67 0.64 0.68 0.91 1.20 1.40
0.42 0.42 0.42 0.41 0.44 0.40 0.41 0.49 0.56 0.71 0.79 0.81 0.75 0.63 0.58 0.54 0.51 0.49 0.49 0.51 0.52 0.54 0.59 0.62 0.76 0.86 0.93 0.88 0.73 0.77 0.76 0.77 0.81 0.83 0.85 0.77 0.72 0.80 0.71 0.65 0.72 0.80 0.92
0.36 0.38 0.39 0.39 0.44 0.48 0.50 0.59 0.64 0.65 0.67 0.71 0.70 0.60 0.53 0.48 0.46 0.44 0.45 0.52 0.52 0.51 0.56 0.59 0.62 0.69 0.83 0.77 0.62 0.67 0.66 0.77 0.85 0.89 0.97 0.98 0.92 0.89 0.96 0.90 0.91 0.88 0.80
0.22 0.22 0.24 0.26 0.30 0.35 0.40 0.42 0.43 0.46 0.47 0.49 0.54 0.49 0.41 0.43 0.46 0.45 0.49 0.52 0.53 0.55 0.57 0.59 0.61 0.66 0.70 0.68 0.61 0.64 0.70 0.83 0.85 0.81 0.93 0.97 0.92 0.97 1.02 1.13 1.19 1.12 0.96
0.12 0.11 0.12 0.13 0.15 0.19 0.28 0.31 0.30 0.26 0.25 0.27 0.32 0.34 0.32 0.34 0.41 0.52 0.58 0.54 0.50 0.55 0.56 0.54 0.53 0.56 0.57 0.63 0.54 0.66 0.77 0.82 0.84 0.85 0.91 1.05 0.98 0.95 0.91 0.99 1.14 1.14 1.01
0.11 0.10 0.09 0.10 0.13 0.18 0.20 0.22 0.27 0.23 0.20 0.21 0.22 0.24 0.26 0.30 0.38 0.45 0.44 0.43 0.44 0.47 0.48 0.51 0.50 0.50 0.57 0.67 0.68 0.73 0.75 0.80 0.87 0.96 1.01 0.98 1.07 0.91 0.86 0.87 0.89 0.98 0.97
0.08 0.09 0.09 0.12 0.14 0.14 0.14 0.16 0.18 0.18 0.18 0.17 0.18 0.19 0.19 0.20 0.24 0.31 0.35 0.36 0.37 0.38 0.37 0.39 0.39 0.42 0.54 0.62 0.63 0.65 0.70 0.78 0.78 0.84 0.85 0.82 0.91 0.76 0.67 0.63 0.69 0.77 0.82
0.06 0.07 0.11 0.14 0.15 0.15 0.13 0.13 0.15 0.18 0.20 0.18 0.16 0.16 0.18 0.19 0.20 0.26 0.29 0.33 0.36 0.37 0.34 0.32 0.34 0.38 0.42 0.50 0.52 0.51 0.51 0.54 0.57 0.56 0.66 0.69 0.66 0.61 0.54 0.59 0.64 0.65 0.68
0.05 0.07 0.12 0.13 0.13 0.13 0.14 0.14 0.15 0.15 0.17 0.15 0.15 0.16 0.18 0.19 0.19 0.22 0.28 0.35 0.35 0.30 0.29 0.31 0.34 0.40 0.42 0.41 0.41 0.43 0.44 0.43 0.48 0.47 0.50 0.52 0.50 0.51 0.52 0.55 0.60 0.66 0.70
0.05 0.07 0.10 0.12 0.13 0.14 0.15 0.16 0.15 0.14 0.15 0.14 0.13 0.14 0.16 0.18 0.18 0.17 0.19 0.27 0.29 0.27 0.29 0.32 0.36 0.40 0.42 0.39 0.34 0.34 0.39 0.45 0.51 0.56 0.52 0.50 0.50 0.51 0.57 0.60 0.60 0.64 0.68
0.06 0.06 0.07 0.10 0.12 0.13 0.16 0.17 0.19 0.18 0.17 0.15 0.15 0.16 0.15 0.17 0.16 0.15 0.17 0.20 0.20 0.23 0.23 0.23 0.25 0.23 0.22 0.22 0.22 0.23 0.28 0.35 0.42 0.56 0.63 0.66 0.70 0.72 0.72 0.70 0.62 0.58 0.59

GEFSMW_prec_meanprecacc_216.txt.gz
Total_Precipitation_Accumulation
0.58 0.56 0.57 0.59 0.60 0.60 0.58 0.58 0.64 0.71 0.83 1.03 1.32 1.71 1.93 2.06 2.05 2.06 1.96 1.74 1.52 1.53 1.71 1.69 1.66 1.66 1.66 1.63 1.58 1.73 1.68 1.43 1.35 1.55 1.54 1.38 1.21 1.16 1.15 1.21 1.44 1.56 1.48
0.53 0.47 0.44 0.45 0.45 0.44 0.47 0.58 0.59 0.66 0.79 1.06 1.33 1.64 1.98 2.05 2.06 2.06 2.02 1.89 1.75 1.76 1.80 2.01 2.11 2.09 2.21 2.19 2.01 2.16 2.20 1.82 1.58 1.86 2.19 1.91 1.68 1.27 1.18 1.31 1.37 1.48 1.56
0.45 0.43 0.39 0.37 0.36 0.32 0.30 0.43 0.52 0.66 0.93 1.26 1.53 1.69 1.96 2.04 2.08 2.04 2.05 2.07 2.01 1.91 1.93 2.05 2.22 2.24 2.32 2.44 2.52 2.46 2.57 2.38 1.98 1.85 2.15 2.10 1.95 1.74 1.38 1.33 1.41 1.58 1.63
0.40 0.39 0.41 0.38 0.31 0.26 0.24 0.31 0.40 0.63 1.01 1.35 1.57 1.81 2.17 2.22 2.13 2.14 2.12 2.12 2.14 2.10 2.18 2.20 2.33 2.34 2.36 2.47 2.57 2.53 2.68 2.77 2.38 2.07 1.86 1.71 1.72 1.86 1.68 1.47 1.43 1.59 1.62
0.33 0.32 0.33 0.33 0.32 0.31 0.31 0.36 0.49 0.71 1.01 1.24 1.50 1.86 2.11 2.18 2.27 2.17 2.12 2.12 2.19 2.21 2.25 2.32 2.50 2.48 2.46 2.45 2.65 2.70 2.80 2.73 2.65 2.50 2.32 2.16 1.92 1.58 1.70 1.77 1.64 1.54 1.44
0.32 0.33 0.34 0.34 0.36 0.37 0.42 0.52 0.68 0.81 1.03 1.24 1.48 1.67 1.90 2.02 2.12 2.18 2.10 2.08 2.14 2.24 2.14 2.06 2.21 2.28 2.32 2.32 2.50 2.67 2.81 2.79 2.81 2.73 2.44 2.39 2.26 1.91 1.85 1.75 1.66 1.68 1.49
0.41 0.44 0.45 0.52 0.59 0.62 0.64 0.72 0.83 0.95 1.06 1.19 1.32 1.39 1.53 1.68 1.70 1.84 1.91 2.02 2.01 2.08 2.11 2.00 1.98 2.02 1.98 2.03 2.15 2.22 2.29 2.44 2.60 2.51 2.30 2.26 2.10 2.06 2.09 2.00 1.78 1.63 1.41
0.57 0.67 0.73 0.81 0.89 0.90 0.90 0.96 1.01 1.03 1.05 1.11 1.18 1.22 1.26 1.35 1.40 1.42 1.42 1.58 1.72 1.76 1.85 1.85 1.79 1.83 1.87 1.88 1.97 2.00 2.00 2.03 2.11 2.10 2.19 2.26 2.11 2.03 1.98 2.03 2.19 1.97 1.73
0.83 0.92 1.04 1.04 1.03 1.02 0.98 1.00 1.04 1.01 1.01 1.05 1.05 1.00 0.98 1.03 1.14 1.16 1.21 1.25 1.32 1.33 1.40 1.49 1.56 1.65 1.69 1.75 1.91 2.00 1.99 1.95 1.92 2.01 2.08 2.04 2.02 2.01 1.90 1.88 2.05 2.16 2.01
1.18 1.29 1.38 1.31 1.21 1.22 1.27 1.16 1.07 0.99 0.95 0.96 0.99 0.90 0.87 0.92 0.97 0.94 0.99 0.98 1.00 1.02 1.06 1.17 1.33 1.56 1.68 1.71 1.79 1.86 1.95 1.98 1.93 2.02 2.12 2.15 2.15 2.16 2.09 1.96 1.95 1.92 1.97
1.58 1.67 1.68 1.58 1.39 1.27 1.26 1.19 1.06 0.94 0.83 0.82 0.90 0.91 0.84 0.85 0.90 0.88 0.81 0.76 0.80 0.86 0.98 1.02 1.17 1.32 1.50 1.68 1.82 1.84 1.85 1.89 1.88 1.82 1.92 2.04 2.13 2.25 2.27 2.25 2.13 2.00 1.95
1.49 1.52 1.48 1.46 1.34 1.24 1.15 1.11 0.99 0.83 0.77 0.82 0.84 0.86 0.78 0.73 0.78 0.79 0.81 0.71 0.68 0.70 0.77 0.91 1.11 1.23 1.31 1.36 1.44 1.52 1.58 1.63 1.69 1.67 1.64 1.71 1.81 1.97 2.12 2.21 2.15 2.14 2.03
1.19 1.28 1.32 1.20 1.14 1.07 1.01 1.10 1.11 0.97 0.93 0.96 1.02 0.94 0.81 0.76 0.76 0.75 0.80 0.73 0.68 0.69 0.72 0.85 1.00 1.06 1.12 1.16 1.17 1.28 1.37 1.38 1.38 1.45 1.41 1.42 1.50 1.65 1.80 1.90 1.98 2.09 2.11
1.03 1.04 1.09 1.04 1.05 0.98 0.94 1.06 1.12 1.11 1.15 1.20 1.18 1.02 0.90 0.81 0.74 0.72 0.74 0.72 0.72 0.73 0.75 0.90 0.98 1.00 0.96 1.05 1.08 1.14 1.17 1.14 1.09 1.14 1.15 1.19 1.24 1.33 1.47 1.62 1.83 2.01 2.11
0.85 0.78 0.75 0.76 0.80 0.78 0.74 0.80 0.91 1.00 1.11 1.17 1.07 0.96 0.86 0.74 0.68 0.71 0.68 0.71 0.77 0.76 0.78 0.83 0.93 0.97 0.95 0.99 1.05 1.04 0.98 0.98 0.97 0.92 0.83 0.85 0.93 0.97 1.06 1.10 1.39 1.64 1.86
0.59 0.56 0.51 0.51 0.55 0.49 0.49 0.54 0.65 0.81 1.00 1.08 0.97 0.82 0.74 0.72 0.66 0.63 0.59 0.59 0.62 0.64 0.66 0.70 0.86 0.97 0.87 0.98 0.98 0.90 0.83 0.80 0.85 0.81 0.74 0.72 0.76 0.69 0.67 0.71 0.93 1.22 1.42
0.48 0.50 0.49 0.45 0.47 0.43 0.43 0.51 0.59 0.73 0.81 0.83 0.77 0.67 0.62 0.59 0.54 0.51 0.52 0.54 0.55 0.56 0.60 0.63 0.78 0.87 0.95 0.89 0.74 0.78 0.77 0.78 0.82 0.84 0.86 0.78 0.73 0.82 0.73 0.67 0.74 0.82 0.93
0.40 0.43 0.44 0.44 0.47 0.51 0.52 0.60 0.66 0.67 0.70 0.73 0.72 0.64 0.58 0.53 0.48 0.45 0.47 0.56 0.57 0.54 0.57 0.60 0.63 0.71 0.84 0.78 0.63 0.67 0.66 0.77 0.86 0.90 0.97 0.99 0.93 0.91 0.98 0.92 0.92 0.89 0.81
0.24 0.25 0.27 0.29 0.35 0.39 0.43 0.44 0.46 0.48 0.50 0.53 0.57 0.51 0.44 0.46 0.50 0.48 0.52 0.55 0.56 0.58 0.58 0.61 0.62 0.67 0.72 0.69 0.62 0.64 0.70 0.84 0.86 0.82 0.93 0.98 0.94 1.00 1.06 1.16 1.22 1.15 0.99
0.15 0.14 0.14 0.16 0.18 0.22 0.32 0.37 0.34 0.29 0.29 0.30 0.36 0.36 0.34 0.37 0.44 0.55 0.61 0.57 0.53 0.57 0.58 0.56 0.54 0.56 0.58 0.64 0.56 0.67 0.77 0.82 0.84 0.85 0.91 1.06 0.99 0.97 0.94 1.02 1.16 1.14 1.01
0.13 0.14 0.12 0.13 0.15 0.20 0.23 0.26 0.31 0.27 0.24 0.23 0.25 0.26 0.29 0.32 0.41 0.47 0.45 0.44 0.46 0.48 0.50 0.53 0.51 0.51 0.58 0.70 0.70 0.75 0.76 0.81 0.87 0.96 1.01 0.99 1.08 0.92 0.88 0.89 0.90 0.99 0.98
0.10 0.10 0.11 0.13 0.16 0.17 0.16 0.18 0.21 0.22 0.23 0.21 0.21 0.22 0.22 0.22 0.26 0.32 0.36 0.38 0.39 0.39 0.39 0.41 0.40 0.43 0.55 0.63 0.65 0.68 0.72 0.79 0.79 0.85 0.86 0.83 0.93 0.79 0.70 0.64 0.70 0.77 0.83
0.07 0.08 0.12 0.15 0.17 0.16 0.14 0.15 0.17 0.20 0.24 0.23 0.20 0.19 0.20 0.20 0.22 0.27 0.31 0.34 0.37 0.38 0.35 0.33 0.35 0.39 0.43 0.51 0.54 0.54 0.53 0.55 0.58 0.57 0.67 0.70 0.68 0.63 0.56 0.60 0.64 0.66 0.69
0.06 0.08 0.13 0.15 0.16 0.16 0.17 0.18 0.18 0.18 0.20 0.19 0.19 0.19 0.20 0.21 0.20 0.24 0.30 0.36 0.36 0.32 0.31 0.33 0.35 0.40 0.43 0.43 0.43 0.45 0.45 0.44 0.49 0.48 0.51 0.53 0.51 0.52 0.54 0.56 0.60 0.66 0.70
0.07 0.09 0.11 0.14 0.15 0.17 0.19 0.20 0.19 0.17 0.18 0.17 0.16 0.17 0.18 0.20 0.20 0.19 0.21 0.27 0.30 0.28 0.30 0.33 0.36 0.40 0.43 0.40 0.36 0.36 0.41 0.46 0.51 0.57 0.53 0.51 0.52 0.53 0.59 0.61 0.60 0.64 0.68
0.07 0.08 0.09 0.11 0.13 0.15 0.19 0.21 0.23 0.22 0.20 0.18 0.17 0.18 0.18 0.19 0.17 0.17 0.18 0.21 0.21 0.24 0.24 0.23 0.25 0.24 0.23 0.25 0.24 0.25 0.29 0.36 0.42 0.56 0.64 0.67 0.73 0.75 0.73 0.71 0.62 0.58 0.59